WA4BPS Weather Reports


time (UTC)temp
C
wind
direction
speed
KPH
gust
KPH
rain 1hr
cm
rain 24hr
cm
rain mn
cm
humidity
%
barometer
mb
20260905145258 27 340 0.0 3.2 0.00 0.00 0.00 71 1012.5
20260905145137 27 340 0.0 3.2 0.00 0.00 0.00 71 1012.5
20260905145034 27 340 0.0 3.2 0.00 0.00 0.00 71 1012.5
20260905144933 27 337 0.0 3.2 0.00 0.00 0.00 72 1012.5
20260905144856 27 340 0.0 4.8 0.00 0.00 0.00 72 1012.5
20260905144703 27 340 0.0 4.8 0.00 0.00 0.00 71 1012.5
20260905144541 27 340 0.0 4.8 0.00 0.00 0.00 71 1012.5
20260905144440 27 340 0.0 4.8 0.00 0.00 0.00 70 1012.5
20260905144339 27 340 0.0 4.8 0.00 0.00 0.00 70 1012.5
20260905144237 27 339 0.0 4.8 0.00 0.00 0.00 70 1012.8
20260905144140 27 340 1.6 6.4 0.00 0.00 0.00 70 1012.8
20260905144059 27 336 3.2 6.4 0.00 0.00 0.00 70 1012.8
20260905143936 27 340 1.6 6.4 0.00 0.00 0.00 69 1012.8
20260905143834 27 339 1.6 6.4 0.00 0.00 0.00 69 1012.8
20260905143733 27 340 3.2 8.0 0.00 0.00 0.00 70 1012.8
20260905143632 27 336 3.2 8.0 0.00 0.00 0.00 71 1012.8
20260905143531 27 340 1.6 8.0 0.00 0.00 0.00 71 1012.8
20260905143450 27 342 3.2 8.0 0.00 0.00 0.00 72 1012.8
20260905143335 27 340 3.2 8.0 0.00 0.00 0.00 73 1012.8
20260905143233 27 340 1.6 8.0 0.00 0.00 0.00 73 1012.8
20260905143205 27 342 1.6 8.0 0.00 0.00 0.00 72 1012.8
20260905143041 27 340 1.6 8.0 0.00 0.00 0.00 72 1012.8
20260905142940 27 339 4.8 8.0 0.00 0.00 0.00 72 1012.8
20260905142838 27 336 3.2 8.0 0.00 0.00 0.00 71 1012.8
20260905142737 27 337 3.2 8.0 0.00 0.00 0.00 71 1012.9
20260905142639 27 337 1.6 8.0 0.00 0.00 0.00 70 1012.9
20260905142537 27 337 3.2 8.0 0.00 0.00 0.00 71 1012.9
20260905142437 27 336 1.6 8.0 0.00 0.00 0.00 72 1012.9
20260905142334 27 339 1.6 8.0 0.00 0.00 0.00 71 1012.9
20260905142234 27 339 3.2 8.0 0.00 0.00 0.00 71 1012.9
20260905142133 27 339 3.2 8.0 0.00 0.00 0.00 72 1012.9
20260905142032 27 342 0.0 4.8 0.00 0.00 0.00 73 1012.9
20260905141954 27 340 3.2 4.8 0.00 0.00 0.00 74 1012.9
20260905141832 27 343 3.2 4.8 0.00 0.00 0.00 74 1012.9
20260905141732 27 343 1.6 4.8 0.00 0.00 0.00 74 1012.9
20260905141700 27 344 1.6 4.8 0.00 0.00 0.00 74 1012.9
20260905141538 27 346 1.6 4.8 0.00 0.00 0.00 74 1012.9
20260905141437 27 344 0.0 4.8 0.00 0.00 0.00 73 1012.9
20260905141336 27 346 1.6 4.8 0.00 0.00 0.00 71 1012.9
20260905141256 27 347 0.0 4.8 0.00 0.00 0.00 71 1013.0
20260905141137 27 344 1.6 4.8 0.00 0.00 0.00 70 1013.0
20260905141035 27 346 3.2 4.8 0.00 0.00 0.00 71 1013.0
20260905140933 27 346 1.6 4.8 0.00 0.00 0.00 71 1013.0
20260905140834 27 347 1.6 4.8 0.00 0.00 0.00 71 1013.0
20260905140732 26 346 0.0 3.2 0.00 0.00 0.00 71 1013.0
20260905140630 26 346 1.6 4.8 0.00 0.00 0.00 72 1013.0
20260905140533 26 346 1.6 4.8 0.00 0.00 0.00 72 1013.0
20260905140451 26 346 0.0 4.8 0.00 0.00 0.00 73 1013.0
20260905140328 26 347 0.0 4.8 0.00 0.00 0.00 73 1013.0
20260905140248 26 344 0.0 4.8 0.00 0.00 0.00 74 1013.0
20260905140158 26 346 0.0 4.8 0.00 0.00 0.00 74 1013.0
20260905140054 26 346 1.6 4.8 0.00 0.00 0.00 74 1013.0
20260905135930 26 344 1.6 4.8 0.00 0.00 0.00 75 1013.0
20260905135827 26 346 3.2 6.4 0.00 0.00 0.00 75 1013.0
20260905135727 26 346 1.6 8.0 0.00 0.00 0.00 75 1013.0
20260905135624 26 346 0.0 8.0 0.00 0.00 0.00 75 1013.0
20260905135527 26 346 0.0 8.0 0.00 0.00 0.00 75 1013.0
20260905135446 26 346 0.0 8.0 0.00 0.00 0.00 75 1013.0
20260905135404 26 344 0.0 8.0 0.00 0.00 0.00 75 1013.0
20260905135301 26 347 0.0 8.0 0.00 0.00 0.00 74 1013.0
20260905135137 26 346 1.6 8.0 0.00 0.00 0.00 74 1013.0
20260905135035 26 346 3.2 8.0 0.00 0.00 0.00 74 1013.0
20260905134933 26 347 4.8 8.0 0.00 0.00 0.00 74 1013.0
20260905134832 26 347 1.6 3.2 0.00 0.00 0.00 74 1013.0
20260905134754 26 342 0.0 3.2 0.00 0.00 0.00 75 1013.0
20260905134704 26 347 0.0 3.2 0.00 0.00 0.00 76 1013.0
20260905134542 26 347 0.0 3.2 0.00 0.00 0.00 76 1013.0
20260905134441 26 347 0.0 3.2 0.00 0.00 0.00 75 1013.0
20260905134340 26 346 0.0 3.2 0.00 0.00 0.00 75 1013.0
20260905134239 26 344 0.0 3.2 0.00 0.00 0.00 76 1013.1
20260905134136 26 347 0.0 3.2 0.00 0.00 0.00 77 1013.1
20260905134055 26 347 1.6 3.2 0.00 0.00 0.00 77 1013.1
20260905133936 26 347 0.0 1.6 0.00 0.00 0.00 77 1013.1
20260905133835 26 347 0.0 0.0 0.00 0.00 0.00 77 1013.1
20260905133734 26 347 0.0 0.0 0.00 0.00 0.00 77 1013.1
20260905133634 26 347 0.0 0.0 0.00 0.00 0.00 77 1013.1
20260905133531 26 347 0.0 0.0 0.00 0.00 0.00 77 1013.1
20260905133430 26 347 0.0 0.0 0.00 0.00 0.00 77 1013.1
20260905133332 26 347 0.0 0.0 0.00 0.00 0.00 77 1013.1
20260905133241 26 347 0.0 0.0 0.00 0.00 0.00 77 1013.1
20260905133150 26 347 0.0 0.0 0.00 0.00 0.00 77 1013.1
20260905133047 26 347 0.0 0.0 0.00 0.00 0.00 77 1013.1
20260905132924 26 347 0.0 0.0 0.00 0.00 0.00 77 1013.1
20260905132843 26 347 0.0 0.0 0.00 0.00 0.00 77 1013.1
20260905132741 26 347 0.0 0.0 0.00 0.00 0.00 77 1013.1
20260905132639 26 347 0.0 0.0 0.00 0.00 0.00 77 1013.1
20260905132542 26 346 0.0 0.0 0.00 0.00 0.00 77 1013.1
20260905132440 26 347 0.0 0.0 0.00 0.00 0.00 77 1013.1
20260905132359 26 347 0.0 0.0 0.00 0.00 0.00 77 1013.1
20260905132236 26 346 0.0 0.0 0.00 0.00 0.00 77 1013.1
20260905132154 26 346 0.0 0.0 0.00 0.00 0.00 77 1013.1
20260905132032 26 347 0.0 0.0 0.00 0.00 0.00 77 1013.1
20260905131930 26 346 0.0 0.0 0.00 0.00 0.00 78 1013.1
20260905131829 25 347 0.0 0.0 0.00 0.00 0.00 78 1013.1
20260905131735 25 344 0.0 0.0 0.00 0.00 0.00 78 1013.1
20260905131704 25 347 0.0 0.0 0.00 0.00 0.00 77 1013.1
20260905131601 25 347 0.0 0.0 0.00 0.00 0.00 77 1013.1
20260905131437 25 347 0.0 1.6 0.00 0.00 0.00 79 1013.1
20260905131335 25 347 0.0 3.2 0.00 0.00 0.00 79 1013.1
20260905131233 25 347 0.0 3.2 0.00 0.00 0.00 80 1013.1
20260905131132 25 346 0.0 3.2 0.00 0.00 0.00 80 1013.1
20260905131035 25 347 0.0 3.2 0.00 0.00 0.00 80 1013.1
20260905130934 25 347 0.0 3.2 0.00 0.00 0.00 80 1013.1
20260905130835 25 346 0.0 3.2 0.00 0.00 0.00 80 1013.1
20260905130734 25 347 0.0 3.2 0.00 0.00 0.00 80 1013.1
20260905130632 25 347 0.0 3.2 0.00 0.00 0.00 80 1013.1
20260905130530 25 347 1.6 3.2 0.00 0.00 0.00 80 1013.1
20260905130429 25 347 1.6 3.2 0.00 0.00 0.00 80 1013.1
20260905130331 25 347 1.6 3.2 0.00 0.00 0.00 80 1013.1
20260905130241 25 347 0.0 0.0 0.00 0.00 0.00 80 1013.1
20260905130151 25 346 0.0 0.0 0.00 0.00 0.00 80 1013.1
20260905130029 25 347 0.0 0.0 0.00 0.00 0.00 80 1013.1
20260905125946 25 344 0.0 0.0 0.00 0.00 0.00 80 1013.1
20260905125905 25 347 0.0 0.0 0.00 0.00 0.00 80 1013.1
20260905125741 25 344 0.0 0.0 0.00 0.00 0.00 79 1013.1
20260905125700 25 347 0.0 0.0 0.00 0.00 0.00 79 1013.1
20260905125541 25 346 0.0 0.0 0.00 0.00 0.00 79 1013.1
20260905125501 25 347 0.0 0.0 0.00 0.00 0.00 79 1013.1
20260905125357 25 347 0.0 0.0 0.00 0.00 0.00 79 1013.1
20260905125235 25 346 0.0 0.0 0.00 0.00 0.00 79 1013.1
20260905125133 25 347 0.0 0.0 0.00 0.00 0.00 78 1013.1
20260905125052 25 347 0.0 0.0 0.00 0.00 0.00 78 1013.1
20260905124929 25 346 0.0 0.0 0.00 0.00 0.00 78 1013.1
20260905124826 25 347 0.0 0.0 0.00 0.00 0.00 78 1013.1
20260905124729 25 347 0.0 0.0 0.00 0.00 0.00 78 1013.1
20260905124659 25 346 0.0 0.0 0.00 0.00 0.00 78 1013.1
20260905124537 25 346 0.0 0.0 0.00 0.00 0.00 78 1013.1
20260905124435 25 346 0.0 0.0 0.00 0.00 0.00 78 1013.1
20260905124353 25 347 0.0 0.0 0.00 0.00 0.00 78 1013.1
20260905124250 25 344 0.0 0.0 0.00 0.00 0.00 78 1013.1
20260905124128 25 347 0.0 0.0 0.00 0.00 0.00 79 1013.1
20260905124027 25 346 0.0 0.0 0.00 0.00 0.00 79 1013.1
20260905123925 25 347 0.0 0.0 0.00 0.00 0.00 79 1013.1
20260905123828 25 346 0.0 0.0 0.00 0.00 0.00 79 1013.1
20260905123726 25 344 0.0 0.0 0.00 0.00 0.00 79 1013.1
20260905123625 25 347 0.0 0.0 0.00 0.00 0.00 79 1013.1
20260905123542 25 347 0.0 0.0 0.00 0.00 0.00 79 1013.1
20260905123440 25 346 0.0 0.0 0.00 0.00 0.00 79 1013.1
20260905123339 25 344 0.0 1.6 0.00 0.00 0.00 79 1013.1
20260905123238 25 347 0.0 3.2 0.00 0.00 0.00 79 1013.1
20260905123213 25 347 0.0 3.2 0.00 0.00 0.00 79 1013.1
20260905123028 25 347 0.0 3.2 0.00 0.00 0.00 79 1013.1
20260905122927 25 347 0.0 4.8 0.00 0.00 0.00 78 1013.1
20260905122829 25 344 0.0 4.8 0.00 0.00 0.00 78 1013.1
20260905122747 25 347 0.0 4.8 0.00 0.00 0.00 78 1012.9
20260905122644 25 347 0.0 4.8 0.00 0.00 0.00 78 1012.9
20260905122541 25 347 0.0 4.8 0.00 0.00 0.00 78 1012.9
20260905122439 25 347 1.6 4.8 0.00 0.00 0.00 78 1012.9
20260905122401 25 347 1.6 4.8 0.00 0.00 0.00 78 1012.9
20260905122239 25 347 1.6 4.8 0.00 0.00 0.00 78 1012.9
20260905122135 25 346 3.2 4.8 0.00 0.00 0.00 78 1012.9
20260905122032 25 347 3.2 4.8 0.00 0.00 0.00 78 1012.9
20260905121932 25 346 3.2 4.8 0.00 0.00 0.00 78 1012.9
20260905121831 25 347 3.2 3.2 0.00 0.00 0.00 78 1012.9
20260905121730 25 347 0.0 1.6 0.00 0.00 0.00 78 1012.9
20260905121659 25 346 0.0 3.2 0.00 0.00 0.00 78 1012.9
20260905121541 25 346 0.0 3.2 0.00 0.00 0.00 78 1012.9
20260905121440 25 347 0.0 3.2 0.00 0.00 0.00 78 1012.9
20260905121338 25 347 0.0 4.8 0.00 0.00 0.00 78 1012.9
20260905121237 25 347 0.0 4.8 0.00 0.00 0.00 78 1012.6
20260905121135 25 347 0.0 4.8 0.00 0.00 0.00 78 1012.6
20260905121033 25 347 0.0 4.8 0.00 0.00 0.00 78 1012.6
20260905120951 25 347 0.0 4.8 0.00 0.00 0.00 77 1012.6
20260905120832 25 342 1.6 4.8 0.00 0.00 0.00 77 1012.6
20260905120731 25 347 3.2 4.8 0.00 0.00 0.00 77 1012.6
20260905120630 25 347 1.6 4.8 0.00 0.00 0.00 77 1012.6
20260905120529 25 347 3.2 4.8 0.00 0.00 0.00 77 1012.6
20260905120427 25 347 3.2 4.8 0.00 0.00 0.00 77 1012.6
20260905120326 25 347 3.2 4.8 0.00 0.00 0.00 77 1012.6
20260905120239 25 347 3.2 4.8 0.00 0.00 0.00 77 1012.6
20260905120148 25 347 3.2 4.8 0.00 0.00 0.00 77 1012.6
20260905120025 25 347 1.6 4.8 0.00 0.00 0.00 77 1012.6
20260905115943 25 344 3.2 4.8 0.00 0.00 0.00 77 1012.6
20260905115841 25 344 3.2 4.8 0.00 0.00 0.00 77 1012.6
20260905115739 25 347 1.6 3.2 0.00 0.00 0.00 77 1012.4
20260905115638 25 344 3.2 3.2 0.00 0.00 0.00 77 1012.4
20260905115536 25 347 1.6 3.2 0.00 0.00 0.00 77 1012.4
20260905115439 25 347 1.6 3.2 0.00 0.00 0.00 77 1012.4
20260905115338 25 346 1.6 4.8 0.00 0.00 0.00 76 1012.4
20260905115256 25 347 0.0 4.8 0.00 0.00 0.00 76 1012.4
20260905115132 25 343 0.0 4.8 0.00 0.00 0.00 76 1012.4
20260905115031 25 347 1.6 4.8 0.00 0.00 0.00 76 1012.4
20260905114929 25 347 1.6 4.8 0.00 0.00 0.00 76 1012.4
20260905114848 25 346 1.6 4.8 0.00 0.00 0.00 76 1012.4
20260905114736 25 346 3.2 4.8 0.00 0.00 0.00 76 1012.4
20260905114649 25 344 3.2 6.4 0.00 0.00 0.00 76 1012.4
20260905114548 25 344 3.2 8.0 0.00 0.00 0.00 76 1012.4
20260905114425 25 347 3.2 8.0 0.00 0.00 0.00 76 1012.4
20260905114324 25 347 3.2 8.0 0.00 0.00 0.00 76 1012.4
20260905114242 25 347 3.2 8.0 0.00 0.00 0.00 77 1012.2
20260905114141 25 346 4.8 8.0 0.00 0.00 0.00 77 1012.2
20260905114039 25 347 4.8 8.0 0.00 0.00 0.00 77 1012.2
20260905113937 25 346 3.2 8.0 0.00 0.00 0.00 77 1012.2
20260905113859 25 347 4.8 8.0 0.00 0.00 0.00 77 1012.2
20260905113736 25 343 6.4 8.0 0.00 0.00 0.00 77 1012.2
20260905113636 25 349 6.4 8.0 0.00 0.00 0.00 77 1012.2
20260905113535 25 349 6.4 8.0 0.00 0.00 0.00 77 1012.2
20260905113432 25 350 6.4 8.0 0.00 0.00 0.00 77 1012.2
20260905113330 25 347 4.8 8.0 0.00 0.00 0.00 77 1012.2
20260905113229 25 350 6.4 8.0 0.00 0.00 0.00 77 1012.2
20260905113159 25 352 6.4 8.0 0.00 0.00 0.00 77 1012.2
20260905113039 25 353 8.0 8.0 0.00 0.00 0.00 77 1012.2
20260905112957 25 352 6.4 8.0 0.00 0.00 0.00 77 1012.2
20260905112835 25 352 6.4 8.0 0.00 0.00 0.00 77 1012.2
20260905112734 25 352 6.4 8.0 0.00 0.00 0.00 77 1012.1
20260905112631 25 353 6.4 8.0 0.00 0.00 0.00 77 1012.1
20260905112531 25 356 6.4 8.0 0.00 0.00 0.00 77 1012.1
20260905112430 25 356 4.8 8.0 0.00 0.00 0.00 77 1012.1
20260905112332 25 1 4.8 8.0 0.00 0.00 0.00 77 1012.1
20260905112229 25 360 6.4 8.0 0.00 0.00 0.00 77 1012.1
20260905112128 25 1 4.8 8.0 0.00 0.00 0.00 77 1012.1
20260905112026 25 360 4.8 8.0 0.00 0.00 0.00 77 1012.1
20260905111925 25 360 4.8 8.0 0.00 0.00 0.00 77 1012.1
20260905111843 25 1 4.8 8.0 0.00 0.00 0.00 77 1012.1
20260905111726 25 360 4.8 4.8 0.00 0.00 0.00 77 1012.1
20260905111654 25 360 4.8 6.4 0.00 0.00 0.00 77 1012.1
20260905111532 25 360 4.8 6.4 0.00 0.00 0.00 77 1012.1
20260905111431 25 1 4.8 6.4 0.00 0.00 0.00 76 1012.1
20260905111326 25 1 3.2 6.4 0.00 0.00 0.00 76 1012.1
20260905111225 25 1 4.8 8.0 0.00 0.00 0.00 76 1011.8
20260905111143 25 360 4.8 8.0 0.00 0.00 0.00 76 1011.8
20260905111042 25 1 4.8 8.0 0.00 0.00 0.00 76 1011.8
20260905110925 25 360 3.2 8.0 0.00 0.00 0.00 76 1011.8
20260905110843 25 360 4.8 8.0 0.00 0.00 0.00 76 1011.8
20260905110742 25 360 4.8 8.0 0.00 0.00 0.00 76 1011.8
20260905110640 25 1 4.8 8.0 0.00 0.00 0.00 76 1011.8
20260905110559 25 3 4.8 8.0 0.00 0.00 0.00 76 1011.8
20260905110456 25 3 4.8 8.0 0.00 0.00 0.00 76 1011.8
20260905110332 25 4 4.8 8.0 0.00 0.00 0.00 77 1011.8
20260905110252 25 4 4.8 8.0 0.00 0.00 0.00 77 1011.8
20260905110224 25 3 4.8 8.0 0.00 0.00 0.00 77 1011.8
20260905110104 25 6 4.8 8.0 0.00 0.00 0.00 77 1011.8
20260905105941 25 7 4.8 8.0 0.00 0.00 0.00 77 1011.8
20260905105841 25 8 4.8 8.0 0.00 0.00 0.00 77 1011.8
20260905105739 25 7 4.8 4.8 0.00 0.00 0.00 77 1011.8
20260905105658 25 6 3.2 8.0 0.00 0.00 0.00 76 1011.8
20260905105535 25 6 3.2 8.0 0.00 0.00 0.00 76 1011.8
20260905105433 25 8 3.2 8.0 0.00 0.00 0.00 76 1011.8
20260905105337 25 8 3.2 8.0 0.00 0.00 0.00 77 1011.8
20260905105233 25 8 3.2 8.0 0.00 0.00 0.00 77 1011.8
20260905105132 25 6 3.2 8.0 0.00 0.00 0.00 77 1011.8
20260905105031 25 6 3.2 8.0 0.00 0.00 0.00 77 1011.8
20260905104929 25 7 4.8 8.0 0.00 0.00 0.00 77 1011.8
20260905104828 25 10 4.8 8.0 0.00 0.00 0.00 77 1011.8
20260905104726 25 7 6.4 8.0 0.00 0.00 0.00 77 1011.8
20260905104657 25 7 6.4 8.0 0.00 0.00 0.00 77 1011.8
20260905104538 25 7 4.8 6.4 0.00 0.00 0.00 77 1011.8
20260905104436 25 10 4.8 8.0 0.00 0.00 0.00 76 1011.8
20260905104354 25 10 4.8 8.0 0.00 0.00 0.00 76 1011.8
20260905104231 25 10 4.8 8.0 0.00 0.00 0.00 77 1011.5
20260905104151 25 11 4.8 8.0 0.00 0.00 0.00 77 1011.5
20260905104029 25 10 4.8 8.0 0.00 0.00 0.00 77 1011.5
20260905103931 25 11 4.8 8.0 0.00 0.00 0.00 77 1011.5
20260905103832 25 10 4.8 8.0 0.00 0.00 0.00 77 1011.5
20260905103730 25 14 4.8 8.0 0.00 0.00 0.00 77 1011.5
20260905103629 25 13 4.8 8.0 0.00 0.00 0.00 76 1011.5
20260905103527 25 17 4.8 8.0 0.00 0.00 0.00 76 1011.5
20260905103427 25 18 4.8 8.0 0.00 0.00 0.00 76 1011.5
20260905103325 25 45 4.8 8.0 0.00 0.00 0.00 76 1011.5
20260905103255 25 88 4.8 8.0 0.00 0.00 0.00 76 1011.5
20260905103144 25 90 4.8 8.0 0.00 0.00 0.00 76 1011.5
20260905103047 25 90 4.8 8.0 0.00 0.00 0.00 76 1011.5
20260905102924 25 93 4.8 8.0 0.00 0.00 0.00 76 1011.5
20260905102826 25 93 4.8 8.0 0.00 0.00 0.00 76 1011.5
20260905102724 25 93 4.8 4.8 0.00 0.00 0.00 77 1011.5
20260905102643 25 93 4.8 4.8 0.00 0.00 0.00 77 1011.5
20260905102601 25 93 3.2 4.8 0.00 0.00 0.00 77 1011.5
20260905102439 25 90 4.8 4.8 0.00 0.00 0.00 76 1011.5
20260905102337 25 92 4.8 4.8 0.00 0.00 0.00 76 1011.5
20260905102240 25 93 3.2 4.8 0.00 0.00 0.00 76 1011.5
20260905102138 25 95 3.2 4.8 0.00 0.00 0.00 76 1011.5
20260905102037 25 92 4.8 4.8 0.00 0.00 0.00 76 1011.5
20260905101935 25 95 4.8 4.8 0.00 0.00 0.00 76 1011.5
20260905101833 25 92 4.8 4.8 0.00 0.00 0.00 76 1011.5
20260905101731 25 93 3.2 4.8 0.00 0.00 0.00 76 1011.5
20260905101659 25 95 3.2 4.8 0.00 0.00 0.00 76 1011.5
20260905101540 25 95 3.2 4.8 0.00 0.00 0.00 76 1011.5
20260905101439 25 95 3.2 4.8 0.00 0.00 0.00 77 1011.5
20260905101338 25 96 3.2 4.8 0.00 0.00 0.00 77 1011.5
20260905101238 25 96 3.2 4.8 0.00 0.00 0.00 76 1011.6
20260905101136 25 96 3.2 4.8 0.00 0.00 0.00 76 1011.6
20260905101034 25 97 4.8 4.8 0.00 0.00 0.00 76 1011.6
20260905100933 25 96 3.2 4.8 0.00 0.00 0.00 76 1011.6
20260905100836 25 96 3.2 4.8 0.00 0.00 0.00 76 1011.6
20260905100734 25 95 3.2 4.8 0.00 0.00 0.00 77 1011.6
20260905100634 25 96 3.2 4.8 0.00 0.00 0.00 77 1011.6
20260905100535 25 96 1.6 4.8 0.00 0.00 0.00 77 1011.6
20260905100434 25 96 3.2 4.8 0.00 0.00 0.00 76 1011.6
20260905100352 25 96 3.2 4.8 0.00 0.00 0.00 76 1011.6
20260905100301 25 96 3.2 4.8 0.00 0.00 0.00 76 1011.6
20260905100149 25 96 3.2 4.8 0.00 0.00 0.00 76 1011.6
20260905100032 25 96 3.2 4.8 0.00 0.00 0.00 76 1011.6
20260905095951 25 96 3.2 4.8 0.00 0.00 0.00 77 1011.6
20260905095828 25 96 3.2 4.8 0.00 0.00 0.00 77 1011.6
20260905095727 25 96 3.2 4.8 0.00 0.00 0.00 76 1011.6
20260905095625 25 96 3.2 4.8 0.00 0.00 0.00 77 1011.6
20260905095525 25 97 3.2 4.8 0.00 0.00 0.00 76 1011.6
20260905095443 25 96 3.2 4.8 0.00 0.00 0.00 76 1011.6
20260905095325 25 95 3.2 4.8 0.00 0.00 0.00 76 1011.6
20260905095226 25 96 3.2 4.8 0.00 0.00 0.00 76 1011.6
20260905095125 25 96 1.6 4.8 0.00 0.00 0.00 76 1011.6
20260905095043 25 96 3.2 4.8 0.00 0.00 0.00 76 1011.6
20260905094942 25 96 3.2 4.8 0.00 0.00 0.00 76 1011.6
20260905094840 25 96 1.6 4.8 0.00 0.00 0.00 76 1011.6
20260905094759 25 95 3.2 4.8 0.00 0.00 0.00 77 1011.6
20260905094707 25 93 3.2 4.8 0.00 0.00 0.00 77 1011.6
20260905094527 25 95 3.2 4.8 0.00 0.00 0.00 76 1011.6
20260905094426 25 95 3.2 4.8 0.00 0.00 0.00 76 1011.6
20260905094344 25 95 3.2 4.8 0.00 0.00 0.00 76 1011.6
20260905094242 25 93 1.6 4.8 0.00 0.00 0.00 76 1011.5
20260905094122 25 95 0.0 0.0 0.00 0.00 0.00 76 1011.5
20260905094024 25 93 0.0 0.0 0.00 0.00 0.00 76 1011.5
20260905093925 25 93 0.0 0.0 0.00 0.00 0.00 76 1011.5
20260905093844 25 93 0.0 0.0 0.00 0.00 0.00 76 1011.5
20260905093742 25 95 0.0 0.0 0.00 0.00 0.00 76 1011.5
20260905093641 25 93 0.0 0.0 0.00 0.00 0.00 76 1011.5
20260905093559 25 95 0.0 0.0 0.00 0.00 0.00 76 1011.5
20260905093436 25 95 0.0 0.0 0.00 0.00 0.00 76 1011.5
20260905093354 25 95 0.0 0.0 0.00 0.00 0.00 76 1011.5
20260905093242 25 95 0.0 0.0 0.00 0.00 0.00 76 1011.5
20260905093151 25 95 0.0 0.0 0.00 0.00 0.00 75 1011.5
20260905093052 25 93 0.0 0.0 0.00 0.00 0.00 75 1011.5
20260905092929 25 95 0.0 0.0 0.00 0.00 0.00 75 1011.5
20260905092826 25 93 0.0 0.0 0.00 0.00 0.00 75 1011.5
20260905092724 25 95 0.0 0.0 0.00 0.00 0.00 75 1011.4
20260905092643 25 95 0.0 0.0 0.00 0.00 0.00 75 1011.4
20260905092543 25 93 0.0 3.2 0.00 0.00 0.00 75 1011.4
20260905092501 25 93 0.0 3.2 0.00 0.00 0.00 75 1011.4
20260905092337 25 95 0.0 3.2 0.00 0.00 0.00 75 1011.4
20260905092242 25 95 0.0 4.8 0.00 0.00 0.00 75 1011.4
20260905092140 25 95 0.0 4.8 0.00 0.00 0.00 75 1011.4
20260905092038 25 93 0.0 4.8 0.00 0.00 0.00 75 1011.4
20260905091936 25 95 0.0 4.8 0.00 0.00 0.00 75 1011.4
20260905091834 25 95 0.0 4.8 0.00 0.00 0.00 75 1011.4
20260905091743 25 95 1.6 4.8 0.00 0.00 0.00 75 1011.4
20260905091652 25 93 3.2 4.8 0.00 0.00 0.00 75 1011.4
20260905091555 25 93 3.2 4.8 0.00 0.00 0.00 75 1011.4
20260905091431 25 95 3.2 4.8 0.00 0.00 0.00 75 1011.4
20260905091350 25 95 3.2 4.8 0.00 0.00 0.00 75 1011.4
20260905091229 25 96 3.2 4.8 0.00 0.00 0.00 75 1011.4
20260905091127 25 95 3.2 4.8 0.00 0.00 0.00 75 1011.4
20260905091025 25 96 3.2 4.8 0.00 0.00 0.00 75 1011.4
20260905090924 25 96 3.2 4.8 0.00 0.00 0.00 75 1011.4
20260905090828 25 95 3.2 4.8 0.00 0.00 0.00 75 1011.4
20260905090724 25 95 1.6 3.2 0.00 0.00 0.00 75 1011.4
20260905090643 25 96 1.6 3.2 0.00 0.00 0.00 75 1011.4
20260905090541 25 95 1.6 3.2 0.00 0.00 0.00 75 1011.4
20260905090440 25 95 1.6 3.2 0.00 0.00 0.00 75 1011.4
20260905090358 25 96 1.6 3.2 0.00 0.00 0.00 75 1011.4
20260905090236 25 95 1.6 3.2 0.00 0.00 0.00 75 1011.4
20260905090206 25 92 1.6 3.2 0.00 0.00 0.00 75 1011.4
20260905085943 25 95 0.0 3.2 0.00 0.00 0.00 75 1011.4
20260905085843 25 93 0.0 3.2 0.00 0.00 0.00 75 1011.4
20260905085742 25 95 0.0 3.2 0.00 0.00 0.00 75 1011.4
20260905085702 25 95 0.0 3.2 0.00 0.00 0.00 76 1011.4
20260905085539 25 95 0.0 3.2 0.00 0.00 0.00 76 1011.4
20260905085436 25 93 3.2 3.2 0.00 0.00 0.00 76 1011.4
20260905085334 25 95 3.2 3.2 0.00 0.00 0.00 76 1011.4
20260905085252 25 95 3.2 3.2 0.00 0.00 0.00 76 1011.4
20260905085132 25 96 1.6 3.2 0.00 0.00 0.00 76 1011.4
20260905085031 25 96 0.0 1.6 0.00 0.00 0.00 76 1011.4
20260905084930 25 96 0.0 0.0 0.00 0.00 0.00 76 1011.4
20260905084829 25 96 0.0 0.0 0.00 0.00 0.00 76 1011.4
20260905084738 25 95 0.0 0.0 0.00 0.00 0.00 76 1011.4
20260905084647 25 96 0.0 0.0 0.00 0.00 0.00 76 1011.4
20260905084525 25 96 0.0 0.0 0.00 0.00 0.00 76 1011.4
20260905084428 25 97 0.0 0.0 0.00 0.00 0.00 76 1011.4
20260905084328 25 95 0.0 0.0 0.00 0.00 0.00 76 1011.4
20260905084227 25 96 0.0 0.0 0.00 0.00 0.00 76 1011.4
20260905084145 25 96 0.0 0.0 0.00 0.00 0.00 76 1011.4
20260905084026 25 95 0.0 1.6 0.00 0.00 0.00 75 1011.4
20260905083925 25 96 0.0 1.6 0.00 0.00 0.00 75 1011.4
20260905083842 25 96 0.0 1.6 0.00 0.00 0.00 75 1011.4
20260905083739 25 93 0.0 1.6 0.00 0.00 0.00 75 1011.4
20260905083642 25 95 0.0 1.6 0.00 0.00 0.00 75 1011.4
20260905083540 25 95 0.0 1.6 0.00 0.00 0.00 75 1011.4
20260905083438 25 96 0.0 1.6 0.00 0.00 0.00 75 1011.4
20260905083338 25 96 0.0 1.6 0.00 0.00 0.00 75 1011.4
20260905083256 25 96 1.6 1.6 0.00 0.00 0.00 75 1011.4
20260905083228 25 97 0.0 1.6 0.00 0.00 0.00 76 1011.4
20260905083103 25 96 0.0 0.0 0.00 0.00 0.00 76 1011.4
20260905082941 25 95 0.0 0.0 0.00 0.00 0.00 76 1011.4
20260905082904 25 96 0.0 0.0 0.00 0.00 0.00 76 1011.4
20260905082741 25 96 0.0 0.0 0.00 0.00 0.00 76 1011.4
20260905082639 25 96 0.0 0.0 0.00 0.00 0.00 76 1011.4
20260905082556 25 93 0.0 0.0 0.00 0.00 0.00 76 1011.4
20260905082433 25 96 0.0 0.0 0.00 0.00 0.00 76 1011.4
20260905082331 25 96 0.0 0.0 0.00 0.00 0.00 76 1011.4
20260905082230 25 96 0.0 0.0 0.00 0.00 0.00 76 1011.4
20260905082133 25 95 0.0 0.0 0.00 0.00 0.00 76 1011.4
20260905082051 25 95 0.0 0.0 0.00 0.00 0.00 76 1011.4
20260905081930 25 95 0.0 0.0 0.00 0.00 0.00 75 1011.4
20260905081828 25 96 0.0 0.0 0.00 0.00 0.00 75 1011.4
20260905081738 25 96 0.0 0.0 0.00 0.00 0.00 75 1011.4
20260905081647 25 93 0.0 0.0 0.00 0.00 0.00 75 1011.4
20260905081546 25 97 0.0 0.0 0.00 0.00 0.00 75 1011.4
20260905081444 25 92 0.0 0.0 0.00 0.00 0.00 75 1011.4
20260905081402 25 93 0.0 0.0 0.00 0.00 0.00 75 1011.4
20260905081224 25 97 0.0 0.0 0.00 0.00 0.00 75 1011.9
20260905081142 25 93 0.0 0.0 0.00 0.00 0.00 75 1011.9
20260905081042 25 96 0.0 0.0 0.00 0.00 0.00 75 1011.9
20260905080940 25 96 0.0 1.6 0.00 0.00 0.00 75 1011.9
20260905080859 25 96 0.0 1.6 0.00 0.00 0.00 75 1011.9
20260905080736 25 95 0.0 3.2 0.00 0.00 0.00 75 1011.9
20260905080654 25 96 0.0 3.2 0.00 0.00 0.00 75 1011.9
20260905080532 25 96 0.0 3.2 0.00 0.00 0.00 75 1011.9
20260905080433 25 96 0.0 3.2 0.00 0.00 0.00 75 1011.9
20260905080332 25 96 0.0 3.2 0.00 0.00 0.00 75 1011.9
20260905080301 25 96 0.0 3.2 0.00 0.00 0.00 75 1011.9
20260905080151 25 96 0.0 3.2 0.00 0.00 0.00 75 1011.9
20260905080026 25 97 1.6 3.2 0.00 0.00 0.00 75 1011.9
20260905075925 25 95 1.6 4.8 0.00 0.00 0.00 75 1011.9
20260905075843 25 96 1.6 4.8 0.00 0.00 0.00 76 1011.9
20260905075741 25 95 0.0 4.8 0.00 0.00 0.00 76 1011.9
20260905075639 25 96 0.0 4.8 0.00 0.00 0.00 76 1011.9
20260905075543 25 96 0.0 4.8 0.00 0.00 0.00 76 1011.9
20260905075501 25 96 1.6 4.8 0.00 0.00 0.00 76 1011.9
20260905075338 25 97 1.6 4.8 0.00 0.00 0.00 76 1011.9
20260905075236 25 96 1.6 4.8 0.00 0.00 0.00 76 1011.9
20260905075134 25 95 3.2 4.8 0.00 0.00 0.00 76 1011.9
20260905075032 25 96 0.0 3.2 0.00 0.00 0.00 76 1011.9
20260905074932 25 96 0.0 3.2 0.00 0.00 0.00 76 1011.9
20260905074854 25 96 0.0 3.2 0.00 0.00 0.00 76 1011.9
20260905074733 25 96 0.0 3.2 0.00 0.00 0.00 76 1011.9
20260905074702 25 96 0.0 3.2 0.00 0.00 0.00 76 1011.9
20260905074540 25 95 0.0 3.2 0.00 0.00 0.00 76 1011.9
20260905074459 25 96 0.0 3.2 0.00 0.00 0.00 75 1011.9
20260905074357 25 96 0.0 3.2 0.00 0.00 0.00 75 1011.9
20260905074234 25 96 1.6 3.2 0.00 0.00 0.00 75 1012.0
20260905074154 25 96 1.6 3.2 0.00 0.00 0.00 75 1012.0
20260905074032 25 96 1.6 3.2 0.00 0.00 0.00 75 1012.0
20260905073934 25 96 0.0 1.6 0.00 0.00 0.00 74 1012.0
20260905073832 25 96 0.0 0.0 0.00 0.00 0.00 74 1012.0
20260905073731 25 96 0.0 0.0 0.00 0.00 0.00 74 1012.0
20260905073629 26 96 0.0 0.0 0.00 0.00 0.00 74 1012.0
20260905073529 26 96 0.0 0.0 0.00 0.00 0.00 74 1012.0
20260905073428 26 96 0.0 0.0 0.00 0.00 0.00 74 1012.0
20260905073327 26 96 0.0 0.0 0.00 0.00 0.00 74 1012.0
20260905073203 26 96 0.0 0.0 0.00 0.00 0.00 74 1012.0
20260905073040 26 96 0.0 0.0 0.00 0.00 0.00 74 1012.0
20260905072939 26 96 0.0 0.0 0.00 0.00 0.00 74 1012.0
20260905072835 26 95 0.0 0.0 0.00 0.00 0.00 74 1012.0
20260905072733 26 96 0.0 0.0 0.00 0.00 0.00 75 1012.0
20260905072632 26 96 0.0 0.0 0.00 0.00 0.00 75 1012.0
20260905072534 26 96 0.0 0.0 0.00 0.00 0.00 75 1012.0
20260905072433 26 96 0.0 0.0 0.00 0.00 0.00 75 1012.0
20260905072331 26 96 0.0 0.0 0.00 0.00 0.00 74 1012.0
20260905072228 26 96 0.0 0.0 0.00 0.00 0.00 74 1012.0
20260905072128 26 96 0.0 3.2 0.00 0.00 0.00 74 1012.0
20260905072047 26 95 0.0 3.2 0.00 0.00 0.00 74 1012.0
20260905071924 26 96 0.0 3.2 0.00 0.00 0.00 74 1012.0
20260905071826 26 96 0.0 4.8 0.00 0.00 0.00 74 1012.0
20260905071725 26 96 0.0 4.8 0.00 0.00 0.00 74 1012.0
20260905071656 26 92 0.0 4.8 0.00 0.00 0.00 74 1012.0
20260905071533 26 93 0.0 4.8 0.00 0.00 0.00 74 1012.0
20260905071431 26 95 0.0 4.8 0.00 0.00 0.00 74 1012.0
20260905071330 26 95 0.0 4.8 0.00 0.00 0.00 74 1012.0
20260905071247 26 96 3.2 4.8 0.00 0.00 0.00 74 1012.0
20260905071125 26 95 3.2 4.8 0.00 0.00 0.00 74 1012.0
20260905071027 26 95 3.2 4.8 0.00 0.00 0.00 74 1012.0
20260905070926 26 93 3.2 4.8 0.00 0.00 0.00 74 1012.0
20260905070843 26 96 1.6 4.8 0.00 0.00 0.00 74 1012.0
20260905070743 26 96 1.6 4.8 0.00 0.00 0.00 74 1012.0
20260905070701 26 95 1.6 4.8 0.00 0.00 0.00 74 1012.0
20260905070539 26 93 3.2 4.8 0.00 0.00 0.00 74 1012.0
20260905070435 26 95 3.2 4.8 0.00 0.00 0.00 74 1012.0
20260905070354 26 96 3.2 4.8 0.00 0.00 0.00 74 1012.0
20260905070235 26 96 3.2 4.8 0.00 0.00 0.00 74 1012.0
20260905070206 26 95 3.2 4.8 0.00 0.00 0.00 74 1012.0
20260905065941 26 96 1.6 4.8 0.00 0.00 0.00 74 1012.0
20260905065839 26 96 0.0 4.8 0.00 0.00 0.00 74 1012.0
20260905065758 26 96 0.0 4.8 0.00 0.00 0.00 73 1012.1
20260905065655 26 96 0.0 4.8 0.00 0.00 0.00 74 1012.1
20260905065554 26 96 0.0 4.8 0.00 0.00 0.00 73 1012.1
20260905065430 26 96 0.0 4.8 0.00 0.00 0.00 73 1012.1
20260905065333 26 95 0.0 4.8 0.00 0.00 0.00 73 1012.1
20260905065231 26 95 3.2 4.8 0.00 0.00 0.00 73 1012.1
20260905065130 26 93 1.6 4.8 0.00 0.00 0.00 73 1012.1
20260905065028 26 95 3.2 4.8 0.00 0.00 0.00 73 1012.1
20260905064927 26 93 3.2 4.8 0.00 0.00 0.00 73 1012.1
20260905064824 26 96 3.2 4.8 0.00 0.00 0.00 73 1012.1
20260905064727 26 96 3.2 4.8 0.00 0.00 0.00 73 1012.1
20260905064659 26 96 3.2 4.8 0.00 0.00 0.00 74 1012.1
20260905064556 26 96 3.2 4.8 0.00 0.00 0.00 74 1012.1
20260905064434 26 95 1.6 4.8 0.00 0.00 0.00 74 1012.1
20260905064333 26 95 1.6 4.8 0.00 0.00 0.00 74 1012.1
20260905064231 26 95 3.2 4.8 0.00 0.00 0.00 74 1012.3
20260905064150 26 93 3.2 4.8 0.00 0.00 0.00 74 1012.3
20260905064029 26 95 1.6 4.8 0.00 0.00 0.00 74 1012.3
20260905063929 26 95 1.6 4.8 0.00 0.00 0.00 74 1012.3
20260905063830 26 95 3.2 4.8 0.00 0.00 0.00 74 1012.3
20260905063728 26 93 1.6 3.2 0.00 0.00 0.00 74 1012.3
20260905063627 26 93 3.2 3.2 0.00 0.00 0.00 74 1012.3
20260905063525 26 93 1.6 3.2 0.00 0.00 0.00 74 1012.3
20260905063424 26 93 0.0 3.2 0.00 0.00 0.00 74 1012.3
20260905063343 26 93 0.0 3.2 0.00 0.00 0.00 74 1012.3
20260905063236 26 92 0.0 3.2 0.00 0.00 0.00 73 1012.3
20260905063147 26 93 0.0 3.2 0.00 0.00 0.00 73 1012.3
20260905063042 26 92 1.6 3.2 0.00 0.00 0.00 73 1012.3
20260905062941 26 93 1.6 3.2 0.00 0.00 0.00 73 1012.3
20260905062839 26 93 1.6 3.2 0.00 0.00 0.00 73 1012.3
20260905062738 26 93 1.6 4.8 0.00 0.00 0.00 73 1012.4
20260905062636 26 93 3.2 4.8 0.00 0.00 0.00 73 1012.4
20260905062534 26 93 3.2 4.8 0.00 0.00 0.00 73 1012.4
20260905062436 26 93 3.2 4.8 0.00 0.00 0.00 73 1012.4
20260905062355 26 95 1.6 4.8 0.00 0.00 0.00 72 1012.4
20260905062232 26 93 0.0 4.8 0.00 0.00 0.00 72 1012.4
20260905062131 26 93 1.6 4.8 0.00 0.00 0.00 72 1012.4
20260905062029 26 93 1.6 4.8 0.00 0.00 0.00 72 1012.4
20260905061928 26 93 1.6 4.8 0.00 0.00 0.00 72 1012.4
20260905061826 26 93 3.2 4.8 0.00 0.00 0.00 72 1012.4
20260905061738 26 93 3.2 3.2 0.00 0.00 0.00 72 1012.4
20260905061647 26 93 1.6 3.2 0.00 0.00 0.00 72 1012.4
20260905061525 26 93 0.0 3.2 0.00 0.00 0.00 72 1012.4
20260905061424 26 92 1.6 4.8 0.00 0.00 0.00 72 1012.4
20260905061343 26 96 0.0 4.8 0.00 0.00 0.00 72 1012.4
20260905061241 26 96 0.0 4.8 0.00 0.00 0.00 72 1012.4
20260905061139 26 97 0.0 4.8 0.00 0.00 0.00 73 1012.4
20260905061038 26 95 0.0 4.8 0.00 0.00 0.00 73 1012.4
20260905061001 26 96 0.0 4.8 0.00 0.00 0.00 73 1012.4
20260905060837 26 97 1.6 4.8 0.00 0.00 0.00 73 1012.4
20260905060736 26 97 1.6 4.8 0.00 0.00 0.00 73 1012.4
20260905060655 26 96 3.2 4.8 0.00 0.00 0.00 73 1012.4
20260905060531 26 96 1.6 4.8 0.00 0.00 0.00 73 1012.4
20260905060430 26 97 3.2 4.8 0.00 0.00 0.00 72 1012.4
20260905060326 26 97 3.2 4.8 0.00 0.00 0.00 72 1012.4
20260905060236 26 97 3.2 4.8 0.00 0.00 0.00 72 1012.4
20260905060148 26 99 1.6 4.8 0.00 0.00 0.00 72 1012.4
20260905060025 26 97 1.6 4.8 0.00 0.00 0.00 72 1012.4
20260905055943 26 95 1.6 4.8 0.00 0.00 0.00 72 1012.4
20260905055842 26 97 1.6 4.8 0.00 0.00 0.00 72 1012.4
20260905055740 26 96 3.2 4.8 0.00 0.00 0.00 72 1012.5
20260905055639 26 97 3.2 4.8 0.00 0.00 0.00 72 1012.5
20260905055538 26 97 1.6 4.8 0.00 0.00 0.00 72 1012.5
20260905055440 26 97 1.6 4.8 0.00 0.00 0.00 72 1012.5
20260905055339 26 97 3.2 6.4 0.00 0.00 0.00 72 1012.5
20260905055257 26 97 3.2 6.4 0.00 0.00 0.00 72 1012.5
20260905055133 26 97 3.2 6.4 0.00 0.00 0.00 72 1012.5
20260905055032 26 97 3.2 6.4 0.00 0.00 0.00 72 1012.5
20260905054930 26 97 4.8 6.4 0.00 0.00 0.00 73 1012.5
20260905054828 26 99 4.8 6.4 0.00 0.00 0.00 73 1012.5
20260905054735 26 97 3.2 6.4 0.00 0.00 0.00 72 1012.5
20260905054649 26 97 3.2 8.0 0.00 0.00 0.00 72 1012.5
20260905054546 26 97 4.8 8.0 0.00 0.00 0.00 72 1012.5
20260905054505 26 97 3.2 8.0 0.00 0.00 0.00 72 1012.5
20260905054403 26 97 3.2 8.0 0.00 0.00 0.00 72 1012.5
20260905054240 26 97 3.2 8.0 0.00 0.00 0.00 72 1012.5
20260905054138 26 95 3.2 8.0 0.00 0.00 0.00 72 1012.5
20260905054037 26 97 3.2 8.0 0.00 0.00 0.00 72 1012.5
20260905053935 26 97 4.8 8.0 0.00 0.00 0.00 72 1012.5
20260905053837 26 96 6.4 8.0 0.00 0.00 0.00 72 1012.5
20260905053735 26 97 6.4 8.0 0.00 0.00 0.00 73 1012.5
20260905053634 26 97 4.8 8.0 0.00 0.00 0.00 72 1012.5
20260905053532 26 93 6.4 8.0 0.00 0.00 0.00 72 1012.5
20260905053431 26 97 6.4 8.0 0.00 0.00 0.00 72 1012.5
20260905053328 26 90 6.4 8.0 0.00 0.00 0.00 72 1012.5
20260905053227 26 97 4.8 8.0 0.00 0.00 0.00 72 1012.5
20260905053157 26 96 4.8 8.0 0.00 0.00 0.00 72 1012.5
20260905053038 26 95 4.8 8.0 0.00 0.00 0.00 72 1012.5
20260905052937 26 96 3.2 8.0 0.00 0.00 0.00 72 1012.5
20260905052834 26 96 3.2 8.0 0.00 0.00 0.00 72 1012.5
20260905052733 26 96 4.8 8.0 0.00 0.00 0.00 72 1012.4
20260905052633 26 97 4.8 8.0 0.00 0.00 0.00 72 1012.4
20260905052530 26 97 3.2 8.0 0.00 0.00 0.00 71 1012.4
20260905052449 26 96 4.8 8.0 0.00 0.00 0.00 71 1012.4
20260905052351 26 95 6.4 8.0 0.00 0.00 0.00 71 1012.4
20260905052229 26 96 4.8 8.0 0.00 0.00 0.00 71 1012.4
20260905052126 26 96 6.4 8.0 0.00 0.00 0.00 71 1012.4
20260905052024 26 95 6.4 8.0 0.00 0.00 0.00 71 1012.4
20260905051942 26 96 6.4 8.0 0.00 0.00 0.00 71 1012.4
20260905051901 26 96 4.8 8.0 0.00 0.00 0.00 71 1012.4
20260905051759 26 96 4.8 8.0 0.00 0.00 0.00 71 1012.4
20260905051646 26 96 4.8 9.7 0.00 0.00 0.00 71 1012.4
20260905051543 26 96 3.2 9.7 0.00 0.00 0.00 71 1012.4
20260905051445 26 97 4.8 9.7 0.00 0.00 0.00 72 1012.4
20260905051346 26 96 4.8 9.7 0.00 0.00 0.00 71 1012.4
20260905051224 26 96 6.4 9.7 0.00 0.00 0.00 71 1012.8
20260905051143 26 96 4.8 9.7 0.00 0.00 0.00 71 1012.8
20260905051041 26 95 6.4 9.7 0.00 0.00 0.00 71 1012.8
20260905050940 26 95 4.8 9.7 0.00 0.00 0.00 72 1012.8
20260905050839 26 93 4.8 9.7 0.00 0.00 0.00 72 1012.8
20260905050737 26 93 6.4 9.7 0.00 0.00 0.00 71 1012.8
20260905050639 26 90 6.4 9.7 0.00 0.00 0.00 71 1012.8
20260905050536 26 86 6.4 9.7 0.00 0.00 0.00 72 1012.8
20260905050435 26 86 6.4 9.7 0.00 0.00 0.00 71 1012.8
20260905050334 26 86 4.8 9.7 0.00 0.00 0.00 71 1012.8
20260905050243 26 86 8.0 9.7 0.00 0.00 0.00 71 1012.8
20260905050153 26 85 6.4 9.7 0.00 0.00 0.00 71 1012.8
20260905050030 26 80 8.0 9.7 0.00 0.00 0.00 71 1012.8
20260905045932 26 83 8.0 9.7 0.00 0.00 0.00 71 1012.8
20260905045831 26 83 8.0 9.7 0.00 0.00 0.00 71 1012.8
20260905045729 26 82 8.0 9.7 0.00 0.00 0.00 71 1012.8
20260905045627 26 78 6.4 9.7 0.00 0.00 0.00 71 1012.8
20260905045545 26 79 6.4 9.7 0.00 0.00 0.00 71 1012.8
20260905045503 26 79 6.4 9.7 0.00 0.00 0.00 71 1012.8
20260905045401 26 79 8.0 9.7 0.00 0.00 0.00 71 1012.8
20260905045237 26 79 6.4 9.7 0.00 0.00 0.00 71 1012.8
20260905045140 26 78 4.8 9.7 0.00 0.00 0.00 71 1012.8
20260905045039 26 78 4.8 9.7 0.00 0.00 0.00 71 1012.8
20260905044937 26 78 6.4 9.7 0.00 0.00 0.00 71 1012.8
20260905044836 26 78 6.4 9.7 0.00 0.00 0.00 71 1012.8
20260905044804 26 78 6.4 9.7 0.00 0.00 0.00 71 1012.8
20260905044651 26 78 8.0 11.3 0.00 0.00 0.00 71 1012.8
20260905044529 26 76 6.4 11.3 0.00 0.00 0.00 71 1012.8
20260905044432 26 76 6.4 11.3 0.00 0.00 0.00 71 1012.8
20260905044330 26 78 8.0 11.3 0.00 0.00 0.00 70 1012.8
20260905044226 26 78 4.8 11.3 0.00 0.00 0.00 70 1012.8
20260905044124 26 78 6.4 11.3 0.00 0.00 0.00 70 1012.8
20260905044042 26 75 4.8 11.3 0.00 0.00 0.00 70 1012.8
20260905044000 26 78 4.8 11.3 0.00 0.00 0.00 71 1012.8
20260905043837 26 76 6.4 11.3 0.00 0.00 0.00 71 1012.8
20260905043736 26 78 8.0 11.3 0.00 0.00 0.00 70 1012.8
20260905043640 26 76 4.8 9.7 0.00 0.00 0.00 71 1012.8
20260905043539 26 75 4.8 9.7 0.00 0.00 0.00 70 1012.8
20260905043438 26 75 8.0 9.7 0.00 0.00 0.00 70 1012.8
20260905043336 26 75 8.0 9.7 0.00 0.00 0.00 70 1012.8
20260905043254 26 73 6.4 9.7 0.00 0.00 0.00 70 1012.8
20260905043205 26 75 6.4 11.3 0.00 0.00 0.00 70 1012.8
20260905043041 26 69 8.0 11.3 0.00 0.00 0.00 70 1012.8
20260905043000 26 73 8.0 11.3 0.00 0.00 0.00 70 1012.8
20260905042841 26 72 6.4 11.3 0.00 0.00 0.00 70 1012.8
20260905042800 26 72 8.0 11.3 0.00 0.00 0.00 70 1012.8
20260905042642 26 71 8.0 11.3 0.00 0.00 0.00 70 1012.8
20260905042542 26 69 9.7 11.3 0.00 0.00 0.00 70 1012.8
20260905042440 26 71 8.0 11.3 0.00 0.00 0.00 70 1012.8
20260905042338 26 71 9.7 11.3 0.00 0.00 0.00 70 1012.8
20260905042236 26 71 8.0 9.7 0.00 0.00 0.00 70 1012.8
20260905042139 26 71 8.0 9.7 0.00 0.00 0.00 69 1012.8
20260905042037 26 71 6.4 9.7 0.00 0.00 0.00 69 1012.8
20260905041935 26 71 6.4 9.7 0.00 0.00 0.00 70 1012.8
20260905041832 26 71 6.4 9.7 0.00 0.00 0.00 70 1012.8
20260905041741 26 71 8.0 9.7 0.00 0.00 0.00 71 1012.8
20260905041649 26 69 9.7 9.7 0.00 0.00 0.00 71 1012.8
20260905041526 26 71 9.7 9.7 0.00 0.00 0.00 71 1012.8
20260905041424 26 69 6.4 9.7 0.00 0.00 0.00 71 1012.8
20260905041346 26 69 8.0 9.7 0.00 0.00 0.00 70 1012.8
20260905041305 26 68 9.7 9.7 0.00 0.00 0.00 70 1012.9
20260905041141 26 69 8.0 9.7 0.00 0.00 0.00 70 1012.9
20260905041101 26 69 8.0 9.7 0.00 0.00 0.00 70 1012.9
20260905040938 26 71 9.7 9.7 0.00 0.00 0.00 70 1012.9
20260905040856 26 71 8.0 9.7 0.00 0.00 0.00 70 1012.9
20260905040734 26 69 8.0 9.7 0.00 0.00 0.00 69 1012.9
20260905040652 26 69 8.0 9.7 0.00 0.00 0.00 69 1012.9
20260905040528 26 69 8.0 9.7 0.00 0.00 0.00 69 1012.9
20260905040425 26 69 8.0 9.7 0.00 0.00 0.00 69 1012.9
20260905040347 26 66 8.0 9.7 0.00 0.00 0.00 70 1012.9
20260905040244 26 68 8.0 9.7 0.00 0.00 0.00 70 1012.9
20260905040155 26 69 8.0 9.7 0.00 0.00 0.00 70 1012.9
20260905040050 26 66 8.0 9.7 0.00 0.00 0.00 70 1012.9
20260905035930 26 69 8.0 9.7 0.00 0.00 0.00 70 1012.9
20260905035829 26 68 8.0 9.7 0.00 0.00 0.00 70 1012.9
20260905035726 26 69 6.4 9.7 0.00 0.00 0.00 70 1013.1
20260905035625 26 68 8.0 9.7 0.00 0.00 0.00 70 1013.1
20260905035542 26 69 8.0 9.7 0.00 0.00 0.00 71 1013.1
20260905035442 26 69 8.0 9.7 0.00 0.00 0.00 71 1013.1
20260905035340 26 66 6.4 9.7 0.00 0.00 0.00 70 1013.1
20260905035239 26 69 8.0 9.7 0.00 0.00 0.00 71 1013.1
20260905035138 26 68 9.7 9.7 0.00 0.00 0.00 71 1013.1
20260905035036 26 69 8.0 9.7 0.00 0.00 0.00 71 1013.1
20260905034935 26 66 6.4 9.7 0.00 0.00 0.00 71 1013.1
20260905034833 26 62 9.7 9.7 0.00 0.00 0.00 71 1013.1
20260905034726 26 61 6.4 9.7 0.00 0.00 0.00 71 1013.1
20260905034603 26 61 8.0 9.7 0.00 0.00 0.00 71 1013.1
20260905034443 26 59 8.0 9.7 0.00 0.00 0.00 71 1013.1
20260905034339 26 59 8.0 9.7 0.00 0.00 0.00 70 1013.1
20260905034259 26 58 8.0 9.7 0.00 0.00 0.00 70 1013.2
20260905034135 26 59 8.0 9.7 0.00 0.00 0.00 71 1013.2
20260905034033 26 59 8.0 11.3 0.00 0.00 0.00 71 1013.2
20260905033931 26 59 9.7 11.3 0.00 0.00 0.00 71 1013.2
20260905033833 26 59 8.0 11.3 0.00 0.00 0.00 71 1013.2
20260905033731 26 59 6.4 11.3 0.00 0.00 0.00 71 1013.2
20260905033629 26 59 9.7 11.3 0.00 0.00 0.00 71 1013.2
20260905033549 26 52 8.0 11.3 0.00 0.00 0.00 71 1013.2
20260905033425 26 52 8.0 11.3 0.00 0.00 0.00 71 1013.2
20260905033344 26 49 8.0 11.3 0.00 0.00 0.00 71 1013.2
20260905033241 26 52 8.0 11.3 0.00 0.00 0.00 71 1013.2
20260905033212 26 52 6.4 11.3 0.00 0.00 0.00 71 1013.2
20260905033027 26 49 8.0 9.7 0.00 0.00 0.00 71 1013.2
20260905032949 26 51 6.4 9.7 0.00 0.00 0.00 71 1013.2
20260905032826 26 51 8.0 9.7 0.00 0.00 0.00 71 1013.2
20260905032725 26 51 6.4 9.7 0.00 0.00 0.00 70 1013.3
20260905032643 26 48 8.0 9.7 0.00 0.00 0.00 70 1013.3
20260905032541 26 51 8.0 9.7 0.00 0.00 0.00 70 1013.3
20260905032500 26 51 6.4 9.7 0.00 0.00 0.00 69 1013.3
20260905032337 26 51 8.0 9.7 0.00 0.00 0.00 69 1013.3
20260905032236 26 49 6.4 9.7 0.00 0.00 0.00 69 1013.3
20260905032138 26 51 8.0 9.7 0.00 0.00 0.00 69 1013.3
20260905032036 26 51 8.0 9.7 0.00 0.00 0.00 70 1013.3
20260905031957 26 40 8.0 9.7 0.00 0.00 0.00 70 1013.3
20260905031835 26 40 8.0 9.7 0.00 0.00 0.00 70 1013.3
20260905031753 26 34 6.4 8.0 0.00 0.00 0.00 70 1013.3
20260905031723 26 37 3.2 4.8 0.00 0.00 0.00 70 1013.3
20260905031541 26 37 3.2 4.8 0.00 0.00 0.00 70 1013.3
20260905031501 26 37 3.2 4.8 0.00 0.00 0.00 70 1013.3
20260905031343 26 37 3.2 8.0 0.00 0.00 0.00 70 1013.3
20260905031243 26 37 3.2 8.0 0.00 0.00 0.00 70 1012.6
20260905031124 26 37 3.2 8.0 0.00 0.00 0.00 70 1012.6
20260905031026 26 34 3.2 8.0 0.00 0.00 0.00 70 1012.6
20260905030929 26 35 3.2 8.0 0.00 0.00 0.00 70 1012.6
20260905030829 26 35 4.8 8.0 0.00 0.00 0.00 70 1012.6
20260905030733 26 37 3.2 8.0 0.00 0.00 0.00 70 1012.6
20260905030633 26 37 3.2 8.0 0.00 0.00 0.00 70 1012.6
20260905030552 26 37 4.8 8.0 0.00 0.00 0.00 70 1012.6
20260905030431 26 37 4.8 8.0 0.00 0.00 0.00 70 1012.6
20260905030330 26 37 4.8 8.0 0.00 0.00 0.00 69 1012.6
20260905030230 26 35 4.8 8.0 0.00 0.00 0.00 69 1012.6
20260905030201 26 37 4.8 8.0 0.00 0.00 0.00 68 1012.6
20260905030037 26 38 4.8 8.0 0.00 0.00 0.00 68 1012.6
20260905025942 26 38 4.8 8.0 0.00 0.00 0.00 68 1012.6
20260905025841 26 35 4.8 8.0 0.00 0.00 0.00 68 1012.6
20260905025739 26 34 4.8 8.0 0.00 0.00 0.00 68 1012.6
20260905025639 26 38 4.8 8.0 0.00 0.00 0.00 68 1012.6
20260905025537 26 37 4.8 8.0 0.00 0.00 0.00 68 1012.6
20260905025456 26 38 4.8 8.0 0.00 0.00 0.00 68 1012.6
20260905025333 26 34 4.8 8.0 0.00 0.00 0.00 69 1012.6
20260905025235 26 38 6.4 8.0 0.00 0.00 0.00 69 1012.6
20260905025134 26 38 4.8 8.0 0.00 0.00 0.00 69 1012.6
20260905025032 26 38 4.8 8.0 0.00 0.00 0.00 68 1012.6
20260905024931 27 35 4.8 8.0 0.00 0.00 0.00 69 1012.6
20260905024849 27 35 4.8 8.0 0.00 0.00 0.00 69 1012.6
20260905024747 27 37 4.8 4.8 0.00 0.00 0.00 69 1012.6
20260905024717 27 35 4.8 4.8 0.00 0.00 0.00 69 1012.6
20260905024616 27 37 4.8 4.8 0.00 0.00 0.00 69 1012.6
20260905024444 27 37 4.8 9.7 0.00 0.00 0.00 69 1012.6
20260905024401 27 38 6.4 9.7 0.00 0.00 0.00 70 1012.6
20260905024240 27 38 8.0 9.7 0.00 0.00 0.00 70 1012.7
20260905024138 27 37 8.0 9.7 0.00 0.00 0.00 69 1012.7
20260905024041 27 38 8.0 9.7 0.00 0.00 0.00 69 1012.7
20260905023941 27 38 8.0 9.7 0.00 0.00 0.00 69 1012.7
20260905023839 27 38 6.4 8.0 0.00 0.00 0.00 69 1012.7
20260905023738 27 37 6.4 8.0 0.00 0.00 0.00 69 1012.7
20260905023656 27 37 6.4 8.0 0.00 0.00 0.00 69 1012.7
20260905023555 27 37 6.4 8.0 0.00 0.00 0.00 69 1012.7
20260905023451 27 37 8.0 8.0 0.00 0.00 0.00 69 1012.7
20260905023329 27 37 6.4 8.0 0.00 0.00 0.00 69 1012.7
20260905023231 27 38 4.8 8.0 0.00 0.00 0.00 69 1012.7
20260905023202 27 37 4.8 8.0 0.00 0.00 0.00 69 1012.7
20260905023038 27 38 4.8 8.0 0.00 0.00 0.00 69 1012.7
20260905022937 27 32 3.2 8.0 0.00 0.00 0.00 69 1012.7
20260905022834 27 37 4.8 8.0 0.00 0.00 0.00 69 1012.7
20260905022733 27 37 4.8 8.0 0.00 0.00 0.00 69 1012.6
20260905022633 27 38 6.4 8.0 0.00 0.00 0.00 69 1012.6
20260905022535 27 35 4.8 8.0 0.00 0.00 0.00 69 1012.6
20260905022433 27 34 3.2 8.0 0.00 0.00 0.00 69 1012.6
20260905022331 27 34 3.2 8.0 0.00 0.00 0.00 69 1012.6
20260905022230 27 34 4.8 8.0 0.00 0.00 0.00 69 1012.6
20260905022129 27 34 3.2 8.0 0.00 0.00 0.00 68 1012.6
20260905022048 27 32 3.2 8.0 0.00 0.00 0.00 69 1012.6
20260905021945 27 34 4.8 8.0 0.00 0.00 0.00 69 1012.6
20260905021904 27 34 4.8 8.0 0.00 0.00 0.00 69 1012.6
20260905021801 27 24 4.8 8.0 0.00 0.00 0.00 69 1012.6
20260905021714 27 30 4.8 8.0 0.00 0.00 0.00 69 1012.6
20260905021531 27 27 4.8 6.4 0.00 0.00 0.00 68 1012.6
20260905021450 27 28 4.8 6.4 0.00 0.00 0.00 68 1012.6
20260905021327 27 28 4.8 8.0 0.00 0.00 0.00 69 1012.6
20260905021245 27 28 3.2 8.0 0.00 0.00 0.00 69 1012.7
20260905021204 27 28 3.2 8.0 0.00 0.00 0.00 69 1012.7
20260905021040 27 28 3.2 8.0 0.00 0.00 0.00 69 1012.7
20260905020939 27 28 3.2 8.0 0.00 0.00 0.00 68 1012.7
20260905020837 27 27 3.2 8.0 0.00 0.00 0.00 68 1012.7
20260905020738 27 28 4.8 8.0 0.00 0.00 0.00 68 1012.7
20260905020637 27 27 4.8 8.0 0.00 0.00 0.00 68 1012.7
20260905020556 27 28 6.4 8.0 0.00 0.00 0.00 67 1012.7
20260905020432 27 25 6.4 8.0 0.00 0.00 0.00 67 1012.7
20260905020331 27 27 4.8 8.0 0.00 0.00 0.00 67 1012.7
20260905020238 27 27 4.8 8.0 0.00 0.00 0.00 68 1012.7
20260905020148 27 28 4.8 8.0 0.00 0.00 0.00 67 1012.7
20260905020026 27 27 4.8 8.0 0.00 0.00 0.00 67 1012.7
20260905015949 27 27 4.8 8.0 0.00 0.00 0.00 67 1012.7
20260905015826 27 28 4.8 8.0 0.00 0.00 0.00 66 1012.7
20260905015725 27 27 4.8 8.0 0.00 0.00 0.00 66 1012.5
20260905015643 27 25 4.8 8.0 0.00 0.00 0.00 66 1012.5
20260905015541 27 28 4.8 8.0 0.00 0.00 0.00 65 1012.5
20260905015439 27 25 6.4 8.0 0.00 0.00 0.00 66 1012.5
20260905015336 27 28 6.4 8.0 0.00 0.00 0.00 66 1012.5
20260905015236 27 28 6.4 8.0 0.00 0.00 0.00 66 1012.5
20260905015137 27 24 4.8 8.0 0.00 0.00 0.00 66 1012.5
20260905015036 27 28 6.4 8.0 0.00 0.00 0.00 66 1012.5
20260905014934 27 28 6.4 8.0 0.00 0.00 0.00 66 1012.5
20260905014851 27 28 4.8 8.0 0.00 0.00 0.00 66 1012.5
20260905014729 27 28 4.8 8.0 0.00 0.00 0.00 66 1012.5
20260905014659 27 25 6.4 8.0 0.00 0.00 0.00 66 1012.5
20260905014537 27 27 6.4 8.0 0.00 0.00 0.00 66 1012.5
20260905014440 27 27 6.4 8.0 0.00 0.00 0.00 67 1012.5
20260905014339 27 28 6.4 8.0 0.00 0.00 0.00 67 1012.5
20260905014258 27 27 6.4 8.0 0.00 0.00 0.00 67 1012.5
20260905014136 27 24 6.4 8.0 0.00 0.00 0.00 68 1012.5
20260905014038 27 25 4.8 8.0 0.00 0.00 0.00 68 1012.5
20260905013957 27 27 6.4 8.0 0.00 0.00 0.00 68 1012.5
20260905013834 27 24 6.4 9.7 0.00 0.00 0.00 68 1012.5
20260905013735 27 24 4.8 9.7 0.00 0.00 0.00 67 1012.5
20260905013637 27 27 4.8 9.7 0.00 0.00 0.00 68 1012.5
20260905013536 27 24 3.2 9.7 0.00 0.00 0.00 68 1012.5
20260905013435 27 24 3.2 9.7 0.00 0.00 0.00 68 1012.5
20260905013334 27 25 4.8 9.7 0.00 0.00 0.00 68 1012.5
20260905013241 27 23 4.8 9.7 0.00 0.00 0.00 67 1012.5
20260905013151 27 24 4.8 9.7 0.00 0.00 0.00 67 1012.5
20260905013027 27 25 6.4 9.7 0.00 0.00 0.00 67 1012.5
20260905012929 27 25 8.0 9.7 0.00 0.00 0.00 67 1012.5
20260905012828 27 25 8.0 9.7 0.00 0.00 0.00 66 1012.5
20260905012727 27 24 8.0 9.7 0.00 0.00 0.00 66 1012.4
20260905012626 27 23 6.4 9.7 0.00 0.00 0.00 66 1012.4
20260905012548 27 23 6.4 9.7 0.00 0.00 0.00 65 1012.4
20260905012425 27 24 8.0 9.7 0.00 0.00 0.00 65 1012.4
20260905012343 27 23 8.0 9.7 0.00 0.00 0.00 65 1012.4
20260905012225 27 23 8.0 9.7 0.00 0.00 0.00 65 1012.4
20260905012143 27 23 6.4 9.7 0.00 0.00 0.00 65 1012.4
20260905012042 27 23 4.8 9.7 0.00 0.00 0.00 65 1012.4
20260905011940 27 23 4.8 9.7 0.00 0.00 0.00 65 1012.4
20260905011839 27 23 6.4 9.7 0.00 0.00 0.00 65 1012.4
20260905011757 27 23 6.4 9.7 0.00 0.00 0.00 65 1012.4
20260905011727 27 23 6.4 9.7 0.00 0.00 0.00 64 1012.4
20260905011541 27 23 6.4 9.7 0.00 0.00 0.00 64 1012.4
20260905011424 27 24 4.8 9.7 0.00 0.00 0.00 64 1012.4
20260905011343 27 23 4.8 9.7 0.00 0.00 0.00 64 1012.4
20260905011240 27 21 4.8 9.7 0.00 0.00 0.00 64 1012.5
20260905011139 27 23 6.4 9.7 0.00 0.00 0.00 64 1012.5
20260905011037 27 23 4.8 9.7 0.00 0.00 0.00 64 1012.5
20260905010934 27 21 6.4 9.7 0.00 0.00 0.00 64 1012.5
20260905010832 27 23 4.8 9.7 0.00 0.00 0.00 64 1012.5
20260905010731 27 20 4.8 9.7 0.00 0.00 0.00 64 1012.5
20260905010635 27 21 6.4 9.7 0.00 0.00 0.00 64 1012.5
20260905010532 27 23 6.4 9.7 0.00 0.00 0.00 64 1012.5
20260905010430 27 23 8.0 9.7 0.00 0.00 0.00 64 1012.5
20260905010328 27 23 4.8 9.7 0.00 0.00 0.00 64 1012.5
20260905010237 27 20 8.0 9.7 0.00 0.00 0.00 65 1012.5
20260905010148 27 17 8.0 9.7 0.00 0.00 0.00 65 1012.5
20260905010024 27 13 4.8 9.7 0.00 0.00 0.00 65 1012.5
20260905005927 27 14 4.8 9.7 0.00 0.00 0.00 65 1012.5
20260905005824 27 14 6.4 9.7 0.00 0.00 0.00 65 1012.5
20260905005743 27 14 6.4 9.7 0.00 0.00 0.00 65 1012.5
20260905005640 27 14 4.8 9.7 0.00 0.00 0.00 65 1012.5
20260905005540 27 11 6.4 9.7 0.00 0.00 0.00 64 1012.5
20260905005439 27 13 4.8 9.7 0.00 0.00 0.00 64 1012.5
20260905005338 27 14 4.8 9.7 0.00 0.00 0.00 64 1012.5
20260905005257 27 14 6.4 9.7 0.00 0.00 0.00 65 1012.5
20260905005139 27 14 4.8 9.7 0.00 0.00 0.00 65 1012.5
20260905005037 27 14 6.4 9.7 0.00 0.00 0.00 65 1012.5
20260905004937 27 13 6.4 9.7 0.00 0.00 0.00 65 1012.5
20260905004836 27 8 6.4 9.7 0.00 0.00 0.00 64 1012.5
20260905004734 27 13 6.4 9.7 0.00 0.00 0.00 64 1012.5
20260905004704 27 13 4.8 9.7 0.00 0.00 0.00 64 1012.5
20260905004543 27 13 6.4 9.7 0.00 0.00 0.00 64 1012.5
20260905004441 27 11 6.4 9.7 0.00 0.00 0.00 64 1012.5
20260905004404 27 10 6.4 9.7 0.00 0.00 0.00 64 1012.5
20260905004301 27 11 6.4 9.7 0.00 0.00 0.00 64 1012.5
20260905004158 27 10 6.4 9.7 0.00 0.00 0.00 64 1012.5
20260905004036 27 11 8.0 9.7 0.00 0.00 0.00 64 1012.5
20260905003934 27 10 8.0 9.7 0.00 0.00 0.00 64 1012.5
20260905003853 27 11 8.0 9.7 0.00 0.00 0.00 64 1012.5
20260905003730 27 10 8.0 9.7 0.00 0.00 0.00 64 1012.5
20260905003629 27 11 8.0 9.7 0.00 0.00 0.00 64 1012.5
20260905003531 27 7 6.4 8.0 0.00 0.00 0.00 64 1012.5
20260905003430 27 8 6.4 8.0 0.00 0.00 0.00 64 1012.5
20260905003328 27 8 4.8 8.0 0.00 0.00 0.00 64 1012.5
20260905003238 27 7 6.4 8.0 0.00 0.00 0.00 64 1012.5
20260905003147 27 7 8.0 8.0 0.00 0.00 0.00 64 1012.5
20260905003027 27 7 6.4 8.0 0.00 0.00 0.00 64 1012.5
20260905002925 27 7 4.8 8.0 0.00 0.00 0.00 65 1012.5
20260905002826 27 7 4.8 8.0 0.00 0.00 0.00 65 1012.5
20260905002745 27 6 4.8 8.0 0.00 0.00 0.00 65 1012.4
20260905002643 27 6 4.8 8.0 0.00 0.00 0.00 65 1012.4
20260905002543 27 8 4.8 8.0 0.00 0.00 0.00 65 1012.4
20260905002442 27 7 4.8 8.0 0.00 0.00 0.00 65 1012.4
20260905002339 27 7 4.8 8.0 0.00 0.00 0.00 65 1012.4
20260905002239 27 7 4.8 6.4 0.00 0.00 0.00 65 1012.4
20260905002135 27 7 4.8 6.4 0.00 0.00 0.00 65 1012.4
20260905002053 27 7 4.8 6.4 0.00 0.00 0.00 65 1012.4
20260905001935 27 7 4.8 6.4 0.00 0.00 0.00 65 1012.4
20260905001833 27 6 4.8 6.4 0.00 0.00 0.00 65 1012.4
20260905001743 27 7 3.2 6.4 0.00 0.00 0.00 65 1012.4
20260905001652 27 8 4.8 6.4 0.00 0.00 0.00 65 1012.4
20260905001529 27 3 4.8 6.4 0.00 0.00 0.00 64 1012.4
20260905001428 28 7 4.8 6.4 0.00 0.00 0.00 64 1012.4
20260905001326 28 7 4.8 8.0 0.00 0.00 0.00 64 1012.4
20260905001230 28 6 4.8 8.0 0.00 0.00 0.00 64 1012.4
20260905001129 28 7 4.8 8.0 0.00 0.00 0.00 64 1012.4
20260905001028 28 7 4.8 8.0 0.00 0.00 0.00 64 1012.4
20260905000925 28 7 4.8 8.0 0.00 0.00 0.00 64 1012.4
20260905000844 28 7 4.8 8.0 0.00 0.00 0.00 64 1012.4
20260905000802 28 7 4.8 8.0 0.00 0.00 0.00 64 1012.4
20260905000700 28 6 4.8 8.0 0.00 0.00 0.00 64 1012.4
20260905000557 28 7 4.8 9.7 0.00 0.00 0.00 64 1012.4
20260905000454 28 6 6.4 9.7 0.00 0.00 0.00 64 1012.4
20260905000356 28 7 4.8 9.7 0.00 0.00 0.00 64 1012.4
20260905000234 28 7 4.8 9.7 0.00 0.00 0.00 64 1012.4
20260905000205 28 7 6.4 9.7 0.00 0.00 0.00 64 1012.4
20260905000041 28 7 8.0 9.7 0.00 0.00 0.00 65 1012.4
20260904235939 28 8 8.0 9.7 0.00 0.00 0.00 65 1012.4
20260904235837 28 7 6.4 9.7 0.00 0.00 0.00 65 1012.4
20260904235737 28 4 6.4 9.7 0.00 0.00 0.00 64 1012.4
20260904235640 28 8 4.8 8.0 0.00 0.00 0.00 64 1012.4
20260904235538 28 8 4.8 8.0 0.00 0.00 0.00 64 1012.4
20260904235456 28 8 4.8 8.0 0.00 0.00 0.00 64 1012.4
20260904235354 28 10 4.8 8.0 0.00 0.00 0.00 64 1012.4
20260904235251 28 11 3.2 8.0 0.00 0.00 0.00 64 1012.4
20260904235128 28 8 4.8 8.0 0.00 0.00 0.00 65 1012.4
20260904235048 28 10 3.2 8.0 0.00 0.00 0.00 65 1012.4
20260904234926 28 7 3.2 8.0 0.00 0.00 0.00 65 1012.4
20260904234825 28 10 4.8 8.0 0.00 0.00 0.00 65 1012.4
20260904234727 28 10 4.8 9.7 0.00 0.00 0.00 64 1012.4
20260904234656 28 7 3.2 9.7 0.00 0.00 0.00 64 1012.4
20260904234558 28 13 4.8 9.7 0.00 0.00 0.00 64 1012.4
20260904234438 28 11 4.8 9.7 0.00 0.00 0.00 64 1012.4
20260904234336 28 14 3.2 12.9 0.00 0.00 0.00 63 1012.4
20260904234235 28 10 4.8 12.9 0.00 0.00 0.00 64 1012.3
20260904234134 28 14 4.8 12.9 0.00 0.00 0.00 64 1012.3
20260904234036 28 16 4.8 12.9 0.00 0.00 0.00 64 1012.3
20260904233954 28 14 6.4 12.9 0.00 0.00 0.00 64 1012.3
20260904233831 28 10 6.4 12.9 0.00 0.00 0.00 64 1012.3
20260904233729 28 11 4.8 12.9 0.00 0.00 0.00 64 1012.3
20260904233629 28 10 4.8 12.9 0.00 0.00 0.00 64 1012.3
20260904233527 28 13 8.0 12.9 0.00 0.00 0.00 64 1012.3
20260904233447 28 14 4.8 12.9 0.00 0.00 0.00 64 1012.3
20260904233345 28 17 6.4 12.9 0.00 0.00 0.00 64 1012.3
20260904233239 28 16 6.4 12.9 0.00 0.00 0.00 64 1012.3
20260904233148 28 18 6.4 12.9 0.00 0.00 0.00 64 1012.3
20260904233025 28 21 8.0 12.9 0.00 0.00 0.00 64 1012.3
20260904232942 28 21 8.0 12.9 0.00 0.00 0.00 64 1012.3
20260904232841 28 23 8.0 12.9 0.00 0.00 0.00 63 1012.3
20260904232739 28 23 11.3 12.9 0.00 0.00 0.00 63 1012.2
20260904232637 28 31 11.3 12.9 0.00 0.00 0.00 63 1012.2
20260904232536 28 4 8.0 12.9 0.00 0.00 0.00 63 1012.2
20260904232459 28 360 6.4 12.9 0.00 0.00 0.00 63 1012.2
20260904232356 28 14 8.0 12.9 0.00 0.00 0.00 63 1012.2
20260904232233 28 1 9.7 12.9 0.00 0.00 0.00 63 1012.2
20260904232132 28 325 9.7 12.9 0.00 0.00 0.00 63 1012.2
20260904232030 28 353 9.7 12.9 0.00 0.00 0.00 62 1012.2
20260904231929 28 325 9.7 12.9 0.00 0.00 0.00 62 1012.2
20260904231828 29 350 6.4 12.9 0.00 0.00 0.00 62 1012.2
20260904231743 29 346 8.0 12.9 0.00 0.00 0.00 62 1012.2
20260904231651 29 360 8.0 12.9 0.00 0.00 0.00 62 1012.2
20260904231530 29 360 9.7 12.9 0.00 0.00 0.00 62 1012.2
20260904231449 29 1 4.8 12.9 0.00 0.00 0.00 62 1012.2
20260904231326 29 3 9.7 16.1 0.00 0.00 0.00 62 1012.2
20260904231243 29 4 8.0 16.1 0.00 0.00 0.00 63 1012.3
20260904231140 29 360 6.4 16.1 0.00 0.00 0.00 63 1012.3
20260904231039 29 3 4.8 17.7 0.00 0.00 0.00 63 1012.3
20260904230941 29 4 4.8 17.7 0.00 0.00 0.00 63 1012.3
20260904230859 29 3 4.8 17.7 0.00 0.00 0.00 62 1012.3
20260904230756 29 4 6.4 17.7 0.00 0.00 0.00 62 1012.3
20260904230635 29 6 8.0 17.7 0.00 0.00 0.00 62 1012.3
20260904230534 29 35 11.3 17.7 0.00 0.00 0.00 62 1012.3
20260904230433 29 360 9.7 17.7 0.00 0.00 0.00 62 1012.3
20260904230330 29 360 11.3 17.7 0.00 0.00 0.00 62 1012.3
20260904230300 29 360 11.3 17.7 0.00 0.00 0.00 62 1012.3
20260904230149 29 326 9.7 17.7 0.00 0.00 0.00 62 1012.3
20260904230029 29 346 3.2 9.7 0.00 0.00 0.00 62 1012.3
20260904225927 29 346 6.4 9.7 0.00 0.00 0.00 62 1012.3
20260904225824 29 342 6.4 9.7 0.00 0.00 0.00 62 1012.3
20260904225743 29 343 6.4 9.7 0.00 0.00 0.00 62 1011.8
20260904225642 29 340 3.2 8.0 0.00 0.00 0.00 61 1011.8
20260904225540 29 342 3.2 8.0 0.00 0.00 0.00 61 1011.8
20260904225437 29 342 4.8 8.0 0.00 0.00 0.00 61 1011.8
20260904225339 29 336 3.2 9.7 0.00 0.00 0.00 61 1011.8
20260904225238 29 336 3.2 11.3 0.00 0.00 0.00 61 1011.8
20260904225136 29 336 4.8 11.3 0.00 0.00 0.00 61 1011.8
20260904225032 29 336 4.8 11.3 0.00 0.00 0.00 61 1011.8
20260904224930 29 335 4.8 11.3 0.00 0.00 0.00 60 1011.8
20260904224827 29 336 4.8 11.3 0.00 0.00 0.00 60 1011.8
20260904224736 29 332 3.2 11.3 0.00 0.00 0.00 60 1011.8
20260904224645 29 333 1.6 11.3 0.00 0.00 0.00 62 1011.8
20260904224528 30 330 3.2 11.3 0.00 0.00 0.00 62 1011.8
20260904224425 30 322 8.0 11.3 0.00 0.00 0.00 61 1011.8
20260904224324 30 37 3.2 8.0 0.00 0.00 0.00 61 1011.8
20260904224242 30 37 1.6 8.0 0.00 0.00 0.00 62 1012.1
20260904224140 30 35 0.0 8.0 0.00 0.00 0.00 62 1012.1
20260904224040 30 35 0.0 8.0 0.00 0.00 0.00 62 1012.1
20260904223940 30 35 1.6 8.0 0.00 0.00 0.00 62 1012.1
20260904223858 30 38 1.6 8.0 0.00 0.00 0.00 62 1012.1
20260904223740 30 37 1.6 8.0 0.00 0.00 0.00 62 1012.1
20260904223638 30 37 4.8 8.0 0.00 0.00 0.00 62 1012.1
20260904223536 30 35 4.8 8.0 0.00 0.00 0.00 62 1012.1
20260904223433 29 35 3.2 8.0 0.00 0.00 0.00 61 1012.1
20260904223331 29 37 3.2 8.0 0.00 0.00 0.00 61 1012.1
20260904223250 29 38 3.2 8.0 0.00 0.00 0.00 62 1012.1
20260904223159 29 37 3.2 8.0 0.00 0.00 0.00 62 1012.1
20260904223039 29 35 3.2 8.0 0.00 0.00 0.00 63 1012.1
20260904222942 29 37 3.2 8.0 0.00 0.00 0.00 63 1012.1
20260904222902 29 37 3.2 8.0 0.00 0.00 0.00 62 1012.1
20260904222740 29 37 3.2 8.0 0.00 0.00 0.00 62 1012.0
20260904222638 29 37 3.2 8.0 0.00 0.00 0.00 62 1012.0
20260904222557 29 37 4.8 8.0 0.00 0.00 0.00 62 1012.0
20260904222434 29 37 4.8 8.0 0.00 0.00 0.00 62 1012.0
20260904222336 29 38 3.2 4.8 0.00 0.00 0.00 62 1012.0
20260904222238 29 35 3.2 4.8 0.00 0.00 0.00 62 1012.0
20260904222138 29 37 3.2 4.8 0.00 0.00 0.00 62 1012.0
20260904222035 29 37 3.2 4.8 0.00 0.00 0.00 62 1012.0
20260904221933 29 35 3.2 4.8 0.00 0.00 0.00 61 1012.0
20260904221832 29 32 1.6 4.8 0.00 0.00 0.00 61 1012.0
20260904221742 29 37 3.2 4.8 0.00 0.00 0.00 61 1012.0
20260904221651 29 37 1.6 4.8 0.00 0.00 0.00 61 1012.0
20260904221532 29 37 0.0 3.2 0.00 0.00 0.00 61 1012.0
20260904221451 29 34 0.0 1.6 0.00 0.00 0.00 62 1012.0
20260904221327 29 38 0.0 0.0 0.00 0.00 0.00 62 1012.0
20260904221245 29 38 0.0 0.0 0.00 0.00 0.00 62 1012.0
20260904221143 29 35 0.0 0.0 0.00 0.00 0.00 61 1012.0
20260904221042 28 34 0.0 0.0 0.00 0.00 0.00 63 1012.0
20260904220921 28 37 0.0 3.2 0.00 0.00 0.00 63 1012.0
20260904220843 28 37 0.0 3.2 0.00 0.00 0.00 65 1012.0
20260904220724 28 34 0.0 3.2 0.00 0.00 0.00 65 1012.0
20260904220626 28 37 0.0 3.2 0.00 0.00 0.00 65 1012.0
20260904220544 28 37 0.0 3.2 0.00 0.00 0.00 64 1012.0
20260904220503 28 37 0.0 4.8 0.00 0.00 0.00 64 1012.0
20260904220340 28 37 0.0 4.8 0.00 0.00 0.00 64 1012.0
20260904220238 28 37 0.0 4.8 0.00 0.00 0.00 63 1012.0
20260904220209 28 34 1.6 4.8 0.00 0.00 0.00 63 1012.0
20260904220045 28 37 1.6 4.8 0.00 0.00 0.00 63 1012.0
20260904215941 28 37 1.6 4.8 0.00 0.00 0.00 63 1012.0
20260904215824 28 38 3.2 4.8 0.00 0.00 0.00 63 1012.0
20260904215743 28 37 3.2 4.8 0.00 0.00 0.00 63 1011.8
20260904215641 28 35 3.2 4.8 0.00 0.00 0.00 63 1011.8
20260904215541 28 37 3.2 4.8 0.00 0.00 0.00 63 1011.8
20260904215439 28 35 3.2 4.8 0.00 0.00 0.00 63 1011.8
20260904215338 28 37 3.2 4.8 0.00 0.00 0.00 63 1011.8
20260904215237 28 35 3.2 4.8 0.00 0.00 0.00 63 1011.8
20260904215140 28 37 3.2 4.8 0.00 0.00 0.00 63 1011.8
20260904215039 28 35 1.6 4.8 0.00 0.00 0.00 64 1011.8
20260904214937 28 38 1.6 4.8 0.00 0.00 0.00 63 1011.8
20260904214835 28 38 1.6 4.8 0.00 0.00 0.00 63 1011.8
20260904214734 28 38 3.2 4.8 0.00 0.00 0.00 64 1011.8
20260904214703 28 37 3.2 8.0 0.00 0.00 0.00 64 1011.8
20260904214601 28 38 3.2 8.0 0.00 0.00 0.00 64 1011.8
20260904214424 28 37 3.2 8.0 0.00 0.00 0.00 64 1011.8
20260904214325 28 37 3.2 9.7 0.00 0.00 0.00 64 1011.8
20260904214244 28 38 3.2 9.7 0.00 0.00 0.00 63 1011.8
20260904214141 28 37 3.2 9.7 0.00 0.00 0.00 63 1011.8
20260904214040 28 37 3.2 9.7 0.00 0.00 0.00 63 1011.8
20260904213938 28 38 3.2 9.7 0.00 0.00 0.00 63 1011.8
20260904213838 28 37 4.8 9.7 0.00 0.00 0.00 63 1011.8
20260904213739 28 32 4.8 9.7 0.00 0.00 0.00 63 1011.8
20260904213637 28 37 6.4 9.7 0.00 0.00 0.00 63 1011.8
20260904213536 28 38 6.4 9.7 0.00 0.00 0.00 62 1011.8
20260904213435 28 37 6.4 9.7 0.00 0.00 0.00 63 1011.8
20260904213332 28 35 6.4 9.7 0.00 0.00 0.00 63 1011.8
20260904213241 28 34 8.0 9.7 0.00 0.00 0.00 63 1011.8
20260904213152 28 35 8.0 9.7 0.00 0.00 0.00 63 1011.8
20260904213033 28 37 6.4 9.7 0.00 0.00 0.00 63 1011.8
20260904212930 28 35 4.8 9.7 0.00 0.00 0.00 63 1011.8
20260904212830 28 37 8.0 9.7 0.00 0.00 0.00 63 1011.8
20260904212749 28 35 6.4 8.0 0.00 0.00 0.00 63 1011.9
20260904212646 28 34 6.4 8.0 0.00 0.00 0.00 62 1011.9
20260904212604 28 35 6.4 8.0 0.00 0.00 0.00 63 1011.9
20260904212441 28 31 4.8 6.4 0.00 0.00 0.00 63 1011.9
20260904212338 28 35 4.8 4.8 0.00 0.00 0.00 63 1011.9
20260904212241 28 34 4.8 4.8 0.00 0.00 0.00 63 1011.9
20260904212139 28 37 3.2 4.8 0.00 0.00 0.00 63 1011.9
20260904212058 28 32 3.2 4.8 0.00 0.00 0.00 63 1011.9
20260904211936 28 34 3.2 4.8 0.00 0.00 0.00 62 1011.9
20260904211833 28 35 1.6 4.8 0.00 0.00 0.00 62 1011.9
20260904211744 28 34 3.2 4.8 0.00 0.00 0.00 62 1011.9
20260904211652 28 31 3.2 4.8 0.00 0.00 0.00 62 1011.9
20260904211530 28 34 4.8 4.8 0.00 0.00 0.00 62 1011.9
20260904211432 28 34 4.8 4.8 0.00 0.00 0.00 61 1011.9
20260904211330 28 30 4.8 4.8 0.00 0.00 0.00 61 1011.9
20260904211248 28 35 3.2 4.8 0.00 0.00 0.00 61 1011.8
20260904211145 28 34 3.2 4.8 0.00 0.00 0.00 60 1011.8
20260904211104 29 35 3.2 4.8 0.00 0.00 0.00 60 1011.8
20260904211002 29 35 3.2 4.8 0.00 0.00 0.00 60 1011.8
20260904210840 29 34 3.2 4.8 0.00 0.00 0.00 60 1011.8
20260904210737 29 34 3.2 4.8 0.00 0.00 0.00 61 1011.8
20260904210639 29 34 3.2 4.8 0.00 0.00 0.00 59 1011.8
20260904210538 29 31 3.2 4.8 0.00 0.00 0.00 60 1011.8
20260904210437 29 32 1.6 8.0 0.00 0.00 0.00 59 1011.8
20260904210334 29 34 1.6 8.0 0.00 0.00 0.00 60 1011.8
20260904210233 29 35 3.2 9.7 0.00 0.00 0.00 60 1011.8
20260904210203 29 35 3.2 9.7 0.00 0.00 0.00 60 1011.8
20260904210040 29 35 3.2 9.7 0.00 0.00 0.00 61 1011.8
20260904205942 29 34 3.2 9.7 0.00 0.00 0.00 61 1011.8
20260904205840 29 35 3.2 9.7 0.00 0.00 0.00 61 1011.8
20260904205758 29 32 4.8 9.7 0.00 0.00 0.00 61 1011.9
20260904205635 29 34 4.8 9.7 0.00 0.00 0.00 60 1011.9
20260904205534 29 32 4.8 9.7 0.00 0.00 0.00 61 1011.9
20260904205432 29 34 6.4 9.7 0.00 0.00 0.00 63 1011.9
20260904205331 29 32 6.4 9.7 0.00 0.00 0.00 62 1011.9
20260904205234 29 31 6.4 9.7 0.00 0.00 0.00 62 1011.9
20260904205135 29 31 8.0 9.7 0.00 0.00 0.00 61 1011.9
20260904205053 29 38 8.0 9.7 0.00 0.00 0.00 61 1011.9
20260904204930 29 42 6.4 9.7 0.00 0.00 0.00 61 1011.9
20260904204828 29 47 4.8 8.0 0.00 0.00 0.00 61 1011.9
20260904204746 29 45 3.2 8.0 0.00 0.00 0.00 61 1011.9
20260904204654 29 47 4.8 8.0 0.00 0.00 0.00 61 1011.9
20260904204533 29 45 3.2 8.0 0.00 0.00 0.00 60 1011.9
20260904204451 29 45 4.8 8.0 0.00 0.00 0.00 61 1011.9
20260904204332 29 45 4.8 11.3 0.00 0.00 0.00 60 1011.9
20260904204231 29 45 6.4 11.3 0.00 0.00 0.00 59 1012.2
20260904204148 29 47 6.4 11.3 0.00 0.00 0.00 60 1012.2
20260904204024 29 44 4.8 11.3 0.00 0.00 0.00 60 1012.2
20260904203944 29 44 4.8 11.3 0.00 0.00 0.00 60 1012.2
20260904203841 29 44 3.2 11.3 0.00 0.00 0.00 60 1012.2
20260904203740 29 42 4.8 11.3 0.00 0.00 0.00 60 1012.2
20260904203638 29 47 6.4 11.3 0.00 0.00 0.00 59 1012.2
20260904203541 29 45 8.0 14.5 0.00 0.00 0.00 60 1012.2
20260904203439 29 45 8.0 14.5 0.00 0.00 0.00 59 1012.2
20260904203358 29 45 6.4 14.5 0.00 0.00 0.00 58 1012.2
20260904203235 29 44 6.4 14.5 0.00 0.00 0.00 58 1012.2
20260904203206 29 44 8.0 14.5 0.00 0.00 0.00 58 1012.2
20260904203041 30 47 8.0 14.5 0.00 0.00 0.00 57 1012.2
20260904203001 30 45 8.0 14.5 0.00 0.00 0.00 58 1012.2
20260904202839 30 44 8.0 14.5 0.00 0.00 0.00 58 1012.2
20260904202742 30 45 9.7 14.5 0.00 0.00 0.00 57 1013.4
20260904202640 30 48 11.3 14.5 0.00 0.00 0.00 58 1013.4
20260904202538 30 48 11.3 12.9 0.00 0.00 0.00 58 1013.4
20260904202436 30 48 9.7 12.9 0.00 0.00 0.00 57 1013.4
20260904202335 30 49 9.7 12.9 0.00 0.00 0.00 58 1013.4
20260904202234 30 48 11.3 12.9 0.00 0.00 0.00 58 1013.4
20260904202151 30 51 11.3 12.9 0.00 0.00 0.00 58 1013.4
20260904202049 30 49 9.7 12.9 0.00 0.00 0.00 56 1013.4
20260904201930 30 49 11.3 12.9 0.00 0.00 0.00 57 1013.4
20260904201849 30 48 11.3 12.9 0.00 0.00 0.00 58 1013.4
20260904201738 30 47 9.7 12.9 0.00 0.00 0.00 57 1013.4
20260904201648 30 49 9.7 12.9 0.00 0.00 0.00 57 1013.4
20260904201545 30 44 8.0 12.9 0.00 0.00 0.00 57 1013.4
20260904201503 30 31 6.4 12.9 0.00 0.00 0.00 57 1013.4
20260904201342 30 44 8.0 14.5 0.00 0.00 0.00 59 1013.4
20260904201240 30 47 9.7 16.1 0.00 0.00 0.00 59 1013.6
20260904201124 30 49 8.0 16.1 0.00 0.00 0.00 59 1013.6
20260904201043 30 48 8.0 16.1 0.00 0.00 0.00 58 1013.6
20260904200943 30 49 9.7 16.1 0.00 0.00 0.00 58 1013.6
20260904200841 30 51 8.0 16.1 0.00 0.00 0.00 57 1013.6
20260904200739 30 48 9.7 16.1 0.00 0.00 0.00 57 1013.6
20260904200638 31 52 9.7 17.7 0.00 0.00 0.00 58 1013.6
20260904200535 31 61 9.7 19.3 0.00 0.00 0.00 57 1013.6
20260904200439 31 71 11.3 19.3 0.00 0.00 0.00 57 1013.6
20260904200337 31 54 6.4 19.3 0.00 0.00 0.00 56 1013.6
20260904200236 31 51 6.4 19.3 0.00 0.00 0.00 56 1013.6
20260904200146 31 54 12.9 22.5 0.00 0.00 0.00 56 1013.6
20260904200024 31 68 12.9 27.4 0.00 0.00 0.00 57 1013.6
20260904195942 31 35 11.3 27.4 0.00 0.00 0.00 57 1013.6
20260904195821 31 51 14.5 29.0 0.00 0.00 0.00 57 1013.6
20260904195726 31 48 14.5 29.0 0.00 0.00 0.00 57 1013.7
20260904195624 31 58 12.9 29.0 0.00 0.00 0.00 57 1013.7
20260904195542 31 65 12.9 29.0 0.00 0.00 0.00 58 1013.7
20260904195442 31 62 14.5 29.0 0.00 0.00 0.00 57 1013.7
20260904195359 31 61 14.5 29.0 0.00 0.00 0.00 56 1013.7
20260904195236 31 90 16.1 29.0 0.00 0.00 0.00 56 1013.7
20260904195135 31 99 11.3 29.0 0.00 0.00 0.00 56 1013.7
20260904195054 31 45 17.7 29.0 0.00 0.00 0.00 56 1013.7
20260904194935 31 41 16.1 29.0 0.00 0.00 0.00 57 1013.7
20260904194833 31 75 9.7 12.9 0.00 0.00 0.00 56 1013.7
20260904194741 31 62 8.0 12.9 0.00 0.00 0.00 57 1013.7
20260904194649 31 59 9.7 12.9 0.00 0.00 0.00 56 1013.7
20260904194528 31 54 3.2 12.9 0.00 0.00 0.00 55 1013.7
20260904194428 31 51 8.0 12.9 0.00 0.00 0.00 57 1013.7
20260904194327 31 58 9.7 12.9 0.00 0.00 0.00 56 1013.7
20260904194246 31 61 3.2 11.3 0.00 0.00 0.00 56 1013.8
20260904194127 31 69 4.8 11.3 0.00 0.00 0.00 57 1013.8
20260904194025 31 55 4.8 9.7 0.00 0.00 0.00 58 1013.8
20260904193944 31 55 6.4 9.7 0.00 0.00 0.00 58 1013.8
20260904193904 31 55 6.4 9.7 0.00 0.00 0.00 57 1013.8
20260904193741 31 55 4.8 8.0 0.00 0.00 0.00 57 1013.8
20260904193700 31 49 0.0 3.2 0.00 0.00 0.00 56 1013.8
20260904193539 31 54 1.6 3.2 0.00 0.00 0.00 55 1013.8
20260904193457 31 51 0.0 3.2 0.00 0.00 0.00 55 1013.8
20260904193339 31 52 0.0 4.8 0.00 0.00 0.00 55 1013.8
20260904193208 31 52 0.0 4.8 0.00 0.00 0.00 56 1013.8
20260904193105 31 52 0.0 4.8 0.00 0.00 0.00 57 1013.8
20260904193002 31 54 0.0 4.8 0.00 0.00 0.00 57 1013.8
20260904192840 32 54 0.0 4.8 0.00 0.00 0.00 54 1013.8
20260904192737 32 52 0.0 4.8 0.00 0.00 0.00 54 1013.8
20260904192637 32 52 1.6 8.0 0.00 0.00 0.00 55 1013.8
20260904192535 32 54 3.2 8.0 0.00 0.00 0.00 57 1013.8
20260904192438 32 52 4.8 8.0 0.00 0.00 0.00 55 1013.8
20260904192336 32 54 1.6 8.0 0.00 0.00 0.00 56 1013.8
20260904192234 32 52 0.0 8.0 0.00 0.00 0.00 55 1013.8
20260904192132 32 52 3.2 8.0 0.00 0.00 0.00 55 1013.8
20260904192028 32 51 3.2 8.0 0.00 0.00 0.00 55 1013.8
20260904191927 32 51 1.6 8.0 0.00 0.00 0.00 56 1013.8
20260904191828 32 54 4.8 9.7 0.00 0.00 0.00 55 1013.8
20260904191739 32 49 1.6 9.7 0.00 0.00 0.00 53 1013.8
20260904191646 32 51 1.6 9.7 0.00 0.00 0.00 53 1013.8
20260904191544 32 51 6.4 9.7 0.00 0.00 0.00 55 1013.8
20260904191441 32 51 4.8 9.7 0.00 0.00 0.00 56 1013.8
20260904191359 32 48 1.6 9.7 0.00 0.00 0.00 56 1013.8
20260904191238 32 48 3.2 9.7 0.00 0.00 0.00 55 1014.1
20260904191137 32 48 3.2 9.7 0.00 0.00 0.00 56 1014.1
20260904191040 32 48 6.4 9.7 0.00 0.00 0.00 57 1014.1
20260904190937 32 49 6.4 9.7 0.00 0.00 0.00 56 1014.1
20260904190836 32 48 4.8 9.7 0.00 0.00 0.00 55 1014.1
20260904190734 32 48 4.8 9.7 0.00 0.00 0.00 54 1014.1
20260904190633 32 48 3.2 9.7 0.00 0.00 0.00 55 1014.1
20260904190531 32 48 4.8 9.7 0.00 0.00 0.00 55 1014.1
20260904190430 32 16 3.2 8.0 0.00 0.00 0.00 54 1014.1
20260904190353 32 14 3.2 8.0 0.00 0.00 0.00 54 1014.1
20260904190301 32 16 1.6 8.0 0.00 0.00 0.00 54 1014.1
20260904190148 32 16 3.2 8.0 0.00 0.00 0.00 54 1014.1
20260904190024 32 18 4.8 8.0 0.00 0.00 0.00 53 1014.1
20260904185943 32 17 3.2 8.0 0.00 0.00 0.00 53 1014.1
20260904185841 32 23 0.0 4.8 0.00 0.00 0.00 54 1014.1
20260904185740 32 23 0.0 9.7 0.00 0.00 0.00 54 1014.3
20260904185658 32 21 0.0 9.7 0.00 0.00 0.00 54 1014.3
20260904185535 32 24 0.0 9.7 0.00 0.00 0.00 53 1014.3
20260904185438 32 20 3.2 9.7 0.00 0.00 0.00 53 1014.3
20260904185337 32 23 1.6 9.7 0.00 0.00 0.00 53 1014.3
20260904185235 32 23 1.6 9.7 0.00 0.00 0.00 54 1014.3
20260904185133 32 21 1.6 9.7 0.00 0.00 0.00 54 1014.3
20260904185031 32 24 1.6 9.7 0.00 0.00 0.00 54 1014.3
20260904184930 32 21 6.4 9.7 0.00 0.00 0.00 53 1014.3
20260904184833 32 21 4.8 9.7 0.00 0.00 0.00 53 1014.3
20260904184751 32 25 1.6 9.7 0.00 0.00 0.00 53 1014.3
20260904184720 32 24 4.8 9.7 0.00 0.00 0.00 52 1014.3
20260904184538 32 14 6.4 9.7 0.00 0.00 0.00 54 1014.3
20260904184436 32 13 3.2 9.7 0.00 0.00 0.00 52 1014.3
20260904184335 32 16 6.4 9.7 0.00 0.00 0.00 52 1014.3
20260904184234 32 11 1.6 4.8 0.00 0.00 0.00 53 1014.5
20260904184131 32 11 1.6 4.8 0.00 0.00 0.00 53 1014.5
20260904184036 32 10 0.0 6.4 0.00 0.00 0.00 53 1014.5
20260904183934 32 10 0.0 11.3 0.00 0.00 0.00 53 1014.5
20260904183833 32 11 0.0 11.3 0.00 0.00 0.00 52 1014.5
20260904183731 32 10 0.0 11.3 0.00 0.00 0.00 51 1014.5
20260904183652 32 8 0.0 11.3 0.00 0.00 0.00 51 1014.5
20260904183529 32 11 0.0 11.3 0.00 0.00 0.00 52 1014.5
20260904183428 32 11 1.6 11.3 0.00 0.00 0.00 52 1014.5
20260904183330 32 10 3.2 11.3 0.00 0.00 0.00 53 1014.5
20260904183248 32 10 4.8 11.3 0.00 0.00 0.00 52 1014.5
20260904183157 32 11 6.4 11.3 0.00 0.00 0.00 53 1014.5
20260904183033 32 10 8.0 11.3 0.00 0.00 0.00 52 1014.5
20260904182932 32 4 4.8 11.3 0.00 0.00 0.00 53 1014.5
20260904182829 32 325 0.0 11.3 0.00 0.00 0.00 52 1014.5
20260904182749 32 323 0.0 11.3 0.00 0.00 0.00 53 1014.6
20260904182625 32 325 6.4 11.3 0.00 0.00 0.00 53 1014.6
20260904182544 32 328 4.8 11.3 0.00 0.00 0.00 52 1014.6
20260904182426 32 17 1.6 11.3 0.00 0.00 0.00 53 1014.6
20260904182325 31 18 6.4 11.3 0.00 0.00 0.00 53 1014.6
20260904182244 31 17 9.7 11.3 0.00 0.00 0.00 53 1014.6
20260904182121 31 16 3.2 9.7 0.00 0.00 0.00 53 1014.6
20260904182023 31 44 6.4 9.7 0.00 0.00 0.00 54 1014.6
20260904181926 31 11 6.4 9.7 0.00 0.00 0.00 54 1014.6
20260904181828 31 13 3.2 9.7 0.00 0.00 0.00 53 1014.6
20260904181726 31 360 3.2 6.4 0.00 0.00 0.00 55 1014.6
20260904181659 31 360 1.6 6.4 0.00 0.00 0.00 55 1014.6
20260904181600 31 344 0.0 6.4 0.00 0.00 0.00 54 1014.6
20260904181438 31 344 0.0 8.0 0.00 0.00 0.00 55 1014.6
20260904181336 31 343 0.0 9.7 0.00 0.00 0.00 54 1014.6
20260904181238 31 344 1.6 9.7 0.00 0.00 0.00 54 1014.7
20260904181136 31 340 4.8 9.7 0.00 0.00 0.00 53 1014.7
20260904181039 32 343 3.2 9.7 0.00 0.00 0.00 53 1014.7
20260904180937 32 346 1.6 9.7 0.00 0.00 0.00 52 1014.7
20260904180834 32 344 3.2 9.7 0.00 0.00 0.00 53 1014.7
20260904180732 32 344 1.6 9.7 0.00 0.00 0.00 53 1014.7
20260904180631 32 346 4.8 12.9 0.00 0.00 0.00 52 1014.7
20260904180528 32 349 6.4 12.9 0.00 0.00 0.00 51 1014.7
20260904180428 32 35 0.0 12.9 0.00 0.00 0.00 52 1014.7
20260904180331 32 34 3.2 12.9 0.00 0.00 0.00 53 1014.7
20260904180240 32 35 1.6 12.9 0.00 0.00 0.00 53 1014.7
20260904180151 32 37 3.2 12.9 0.00 0.00 0.00 53 1014.7
20260904180047 32 32 3.2 12.9 0.00 0.00 0.00 53 1014.7
20260904175925 32 37 6.4 12.9 0.00 0.00 0.00 54 1014.7
20260904175824 32 44 6.4 12.9 0.00 0.00 0.00 55 1014.7
20260904175727 32 360 1.6 11.3 0.00 0.00 0.00 53 1014.9
20260904175625 32 352 4.8 11.3 0.00 0.00 0.00 53 1014.9
20260904175528 32 339 6.4 11.3 0.00 0.00 0.00 53 1014.9
20260904175428 32 337 8.0 11.3 0.00 0.00 0.00 53 1014.9
20260904175334 32 347 8.0 11.3 0.00 0.00 0.00 55 1014.9
20260904175230 32 20 1.6 8.0 0.00 0.00 0.00 54 1014.9
20260904175129 32 21 0.0 8.0 0.00 0.00 0.00 54 1014.9
20260904175027 32 21 0.0 8.0 0.00 0.00 0.00 54 1014.9
20260904174930 32 23 0.0 11.3 0.00 0.00 0.00 56 1014.9
20260904174829 32 23 0.0 11.3 0.00 0.00 0.00 55 1014.9
20260904174749 32 21 3.2 11.3 0.00 0.00 0.00 55 1014.9
20260904174657 32 23 4.8 11.3 0.00 0.00 0.00 54 1014.9
20260904174535 32 21 4.8 11.3 0.00 0.00 0.00 54 1014.9
20260904174435 32 20 4.8 11.3 0.00 0.00 0.00 53 1014.9
20260904174333 32 1 3.2 11.3 0.00 0.00 0.00 53 1014.9
20260904174233 32 4 3.2 11.3 0.00 0.00 0.00 53 1015.1
20260904174136 32 325 6.4 11.3 0.00 0.00 0.00 53 1015.1
20260904174034 32 322 3.2 11.3 0.00 0.00 0.00 55 1015.1
20260904173936 32 40 0.0 8.0 0.00 0.00 0.00 57 1015.1
20260904173834 32 37 1.6 8.0 0.00 0.00 0.00 57 1015.1
20260904173732 31 38 0.0 9.7 0.00 0.00 0.00 56 1015.1
20260904173631 31 38 0.0 9.7 0.00 0.00 0.00 56 1015.1
20260904173535 31 38 0.0 9.7 0.00 0.00 0.00 55 1015.1
20260904173432 31 38 1.6 9.7 0.00 0.00 0.00 57 1015.1
20260904173331 31 40 1.6 9.7 0.00 0.00 0.00 57 1015.1
20260904173241 31 40 3.2 9.7 0.00 0.00 0.00 56 1015.1
20260904173151 31 40 6.4 9.7 0.00 0.00 0.00 58 1015.1
20260904173029 31 30 6.4 9.7 0.00 0.00 0.00 56 1015.1
20260904172927 31 32 6.4 9.7 0.00 0.00 0.00 55 1015.1
20260904172831 31 17 4.8 9.7 0.00 0.00 0.00 56 1015.1
20260904172730 31 31 4.8 11.3 0.00 0.00 0.00 57 1015.3
20260904172648 31 28 1.6 11.3 0.00 0.00 0.00 58 1015.3
20260904172526 31 27 3.2 11.3 0.00 0.00 0.00 58 1015.3
20260904172425 31 30 3.2 11.3 0.00 0.00 0.00 58 1015.3
20260904172343 31 30 1.6 11.3 0.00 0.00 0.00 59 1015.3
20260904172241 31 32 3.2 11.3 0.00 0.00 0.00 60 1015.3
20260904172139 31 32 4.8 11.3 0.00 0.00 0.00 59 1015.3
20260904172042 31 34 8.0 11.3 0.00 0.00 0.00 58 1015.3
20260904172000 31 30 8.0 11.3 0.00 0.00 0.00 56 1015.3
20260904171837 31 346 3.2 8.0 0.00 0.00 0.00 56 1015.3
20260904171734 31 343 4.8 8.0 0.00 0.00 0.00 58 1015.3
20260904171703 31 337 3.2 8.0 0.00 0.00 0.00 59 1015.3
20260904171602 31 31 0.0 8.0 0.00 0.00 0.00 59 1015.3
20260904171440 31 30 1.6 8.0 0.00 0.00 0.00 58 1015.3
20260904171339 31 28 4.8 8.0 0.00 0.00 0.00 60 1015.3
20260904171258 31 30 3.2 8.0 0.00 0.00 0.00 59 1015.6
20260904171140 31 27 1.6 8.0 0.00 0.00 0.00 59 1015.6
20260904171038 31 25 1.6 8.0 0.00 0.00 0.00 58 1015.6
20260904170936 31 23 4.8 8.0 0.00 0.00 0.00 59 1015.6
20260904170836 30 24 6.4 8.0 0.00 0.00 0.00 59 1015.6
20260904170733 30 25 3.2 8.0 0.00 0.00 0.00 59 1015.6
20260904170632 30 27 0.0 8.0 0.00 0.00 0.00 59 1015.6
20260904170551 30 27 1.6 8.0 0.00 0.00 0.00 59 1015.6
20260904170449 30 27 4.8 11.3 0.00 0.00 0.00 58 1015.6
20260904170331 30 27 4.8 11.3 0.00 0.00 0.00 58 1015.6
20260904170229 30 24 1.6 11.3 0.00 0.00 0.00 58 1015.6
20260904170200 30 24 1.6 11.3 0.00 0.00 0.00 57 1015.6
20260904170036 30 24 3.2 11.3 0.00 0.00 0.00 57 1015.6
20260904165936 30 25 3.2 11.3 0.00 0.00 0.00 58 1015.6
20260904165835 30 25 3.2 11.3 0.00 0.00 0.00 58 1015.6
20260904165734 30 24 6.4 11.3 0.00 0.00 0.00 58 1015.8
20260904165636 30 24 6.4 11.3 0.00 0.00 0.00 58 1015.8
20260904165533 30 25 6.4 11.3 0.00 0.00 0.00 59 1015.8
20260904165432 30 360 1.6 8.0 0.00 0.00 0.00 57 1015.8
20260904165351 30 360 1.6 8.0 0.00 0.00 0.00 57 1015.8
20260904165226 30 360 3.2 8.0 0.00 0.00 0.00 56 1015.8
20260904165126 30 360 0.0 8.0 0.00 0.00 0.00 57 1015.8
20260904165048 30 360 3.2 8.0 0.00 0.00 0.00 59 1015.8
20260904164926 30 360 6.4 8.0 0.00 0.00 0.00 58 1015.8
20260904164828 30 360 4.8 6.4 0.00 0.00 0.00 58 1015.8
20260904164746 30 360 1.6 6.4 0.00 0.00 0.00 58 1015.8
20260904164716 30 356 0.0 4.8 0.00 0.00 0.00 58 1015.8
20260904164533 30 357 1.6 4.8 0.00 0.00 0.00 59 1015.8
20260904164431 30 357 3.2 8.0 0.00 0.00 0.00 58 1015.8
20260904164329 30 352 3.2 8.0 0.00 0.00 0.00 57 1015.8
20260904164249 30 350 1.6 9.7 0.00 0.00 0.00 57 1015.9
20260904164127 30 350 3.2 9.7 0.00 0.00 0.00 56 1015.9
20260904164026 30 349 3.2 9.7 0.00 0.00 0.00 57 1015.9
20260904163929 30 349 1.6 9.7 0.00 0.00 0.00 57 1015.9
20260904163828 30 350 3.2 9.7 0.00 0.00 0.00 57 1015.9
20260904163749 30 352 3.2 9.7 0.00 0.00 0.00 57 1015.9
20260904163647 30 349 4.8 9.7 0.00 0.00 0.00 57 1015.9
20260904163527 30 349 3.2 9.7 0.00 0.00 0.00 56 1015.9
20260904163426 30 347 6.4 9.7 0.00 0.00 0.00 58 1015.9
20260904163344 30 347 4.8 9.7 0.00 0.00 0.00 59 1015.9
20260904163242 30 344 0.0 8.0 0.00 0.00 0.00 58 1015.9
20260904163213 30 346 1.6 8.0 0.00 0.00 0.00 59 1015.9
20260904163052 30 346 4.8 8.0 0.00 0.00 0.00 58 1015.9
20260904162930 30 346 4.8 8.0 0.00 0.00 0.00 58 1015.9
20260904162828 30 346 3.2 8.0 0.00 0.00 0.00 58 1015.9
20260904162746 30 344 4.8 8.0 0.00 0.00 0.00 59 1015.9
20260904162705 30 346 4.8 8.0 0.00 0.00 0.00 59 1015.9
20260904162542 30 346 1.6 8.0 0.00 0.00 0.00 59 1015.9
20260904162439 30 344 0.0 8.0 0.00 0.00 0.00 59 1015.9
20260904162338 30 344 3.2 8.0 0.00 0.00 0.00 60 1015.9
20260904162241 30 343 3.2 8.0 0.00 0.00 0.00 61 1015.9
20260904162140 30 343 3.2 8.0 0.00 0.00 0.00 60 1015.9
20260904162037 30 343 4.8 8.0 0.00 0.00 0.00 60 1015.9
20260904161937 30 342 4.8 8.0 0.00 0.00 0.00 60 1015.9
20260904161836 30 343 4.8 8.0 0.00 0.00 0.00 62 1015.9
20260904161738 30 287 0.0 3.2 0.00 0.00 0.00 62 1015.9
20260904161647 30 284 0.0 4.8 0.00 0.00 0.00 62 1015.9
20260904161529 30 284 0.0 4.8 0.00 0.00 0.00 62 1015.9
20260904161427 30 287 0.0 4.8 0.00 0.00 0.00 62 1015.9
20260904161346 30 287 0.0 4.8 0.00 0.00 0.00 62 1015.9
20260904161225 30 285 1.6 4.8 0.00 0.00 0.00 61 1016.0
20260904161142 30 287 0.0 4.8 0.00 0.00 0.00 62 1016.0
20260904161042 30 289 0.0 6.4 0.00 0.00 0.00 62 1016.0
20260904160941 30 289 0.0 6.4 0.00 0.00 0.00 62 1016.0
20260904160844 30 289 1.6 8.0 0.00 0.00 0.00 61 1016.0
20260904160742 30 288 3.2 8.0 0.00 0.00 0.00 61 1016.0
20260904160702 30 287 1.6 8.0 0.00 0.00 0.00 62 1016.0
20260904160539 30 287 0.0 8.0 0.00 0.00 0.00 62 1016.0
20260904160436 30 291 0.0 8.0 0.00 0.00 0.00 61 1016.0
20260904160334 30 289 4.8 8.0 0.00 0.00 0.00 62 1016.0
20260904160243 30 288 3.2 8.0 0.00 0.00 0.00 62 1016.0
20260904160152 30 280 1.6 8.0 0.00 0.00 0.00 62 1016.0
20260904160028 30 282 4.8 8.0 0.00 0.00 0.00 61 1016.0
20260904155951 30 275 0.0 4.8 0.00 0.00 0.00 61 1016.0
20260904155828 30 278 3.2 4.8 0.00 0.00 0.00 61 1016.0
20260904155727 30 277 1.6 4.8 0.00 0.00 0.00 63 1015.9
20260904155644 30 272 1.6 8.0 0.00 0.00 0.00 63 1015.9
20260904155542 30 272 1.6 8.0 0.00 0.00 0.00 64 1015.9
20260904155438 30 271 0.0 8.0 0.00 0.00 0.00 63 1015.9
20260904155336 30 268 0.0 8.0 0.00 0.00 0.00 63 1015.9
20260904155234 30 274 0.0 8.0 0.00 0.00 0.00 63 1015.9
20260904155136 29 272 0.0 8.0 0.00 0.00 0.00 64 1015.9
20260904155055 29 274 1.6 8.0 0.00 0.00 0.00 64 1015.9
20260904154931 29 272 3.2 8.0 0.00 0.00 0.00 63 1015.9
20260904154854 29 272 4.8 8.0 0.00 0.00 0.00 63 1015.9
20260904154742 29 272 4.8 8.0 0.00 0.00 0.00 63 1015.9
20260904154650 29 272 4.8 8.0 0.00 0.00 0.00 64 1015.9
20260904154527 29 270 0.0 6.4 0.00 0.00 0.00 63 1015.9
20260904154446 29 268 0.0 8.0 0.00 0.00 0.00 62 1015.9
20260904154343 29 270 1.6 8.0 0.00 0.00 0.00 63 1015.9
20260904154225 29 267 3.2 8.0 0.00 0.00 0.00 63 1015.0
20260904154143 29 270 3.2 8.0 0.00 0.00 0.00 63 1015.0
20260904154041 29 270 1.6 8.0 0.00 0.00 0.00 64 1015.0
20260904153941 29 270 3.2 8.0 0.00 0.00 0.00 64 1015.0
20260904153839 29 270 1.6 8.0 0.00 0.00 0.00 64 1015.0
20260904153738 29 268 1.6 8.0 0.00 0.00 0.00 65 1015.0
20260904153636 29 268 3.2 8.0 0.00 0.00 0.00 65 1015.0
20260904153538 29 268 3.2 8.0 0.00 0.00 0.00 65 1015.0
20260904153436 29 265 0.0 6.4 0.00 0.00 0.00 65 1015.0
20260904153353 29 263 0.0 6.4 0.00 0.00 0.00 65 1015.0
20260904153231 29 267 1.6 6.4 0.00 0.00 0.00 65 1015.0
20260904153202 29 265 1.6 6.4 0.00 0.00 0.00 66 1015.0
20260904153039 29 265 3.2 6.4 0.00 0.00 0.00 66 1015.0
20260904152940 29 264 3.2 6.4 0.00 0.00 0.00 66 1015.0
20260904152843 28 267 3.2 6.4 0.00 0.00 0.00 66 1015.0
20260904152741 28 267 3.2 6.4 0.00 0.00 0.00 66 1015.0
20260904152640 28 267 4.8 6.4 0.00 0.00 0.00 67 1015.0
20260904152537 28 264 3.2 6.4 0.00 0.00 0.00 66 1015.0
20260904152437 28 258 3.2 6.4 0.00 0.00 0.00 67 1015.0
20260904152336 28 260 3.2 6.4 0.00 0.00 0.00 67 1015.0
20260904152257 28 258 1.6 6.4 0.00 0.00 0.00 68 1015.0
20260904152155 28 254 3.2 6.4 0.00 0.00 0.00 68 1015.0
20260904152036 28 260 3.2 6.4 0.00 0.00 0.00 68 1015.0
20260904151935 28 258 1.6 4.8 0.00 0.00 0.00 68 1015.0
20260904151836 28 258 0.0 4.8 0.00 0.00 0.00 68 1015.0
20260904151733 28 260 0.0 4.8 0.00 0.00 0.00 69 1015.0
20260904151703 28 258 0.0 6.4 0.00 0.00 0.00 68 1015.0
20260904151541 28 258 1.6 6.4 0.00 0.00 0.00 69 1015.0
20260904151439 28 256 1.6 6.4 0.00 0.00 0.00 69 1015.0
20260904151342 28 258 0.0 6.4 0.00 0.00 0.00 69 1015.0
20260904151243 28 260 0.0 6.4 0.00 0.00 0.00 69 1014.9
20260904151140 28 258 1.6 6.4 0.00 0.00 0.00 69 1014.9
20260904151037 28 258 3.2 6.4 0.00 0.00 0.00 69 1014.9
20260904150934 28 258 0.0 6.4 0.00 0.00 0.00 70 1014.9
20260904150833 28 258 3.2 6.4 0.00 0.00 0.00 69 1014.9
20260904150732 28 247 1.6 4.8 0.00 0.00 0.00 69 1014.9
20260904150633 28 244 3.2 4.8 0.00 0.00 0.00 69 1014.9
20260904150533 28 246 1.6 6.4 0.00 0.00 0.00 69 1014.9
20260904150431 28 246 1.6 6.4 0.00 0.00 0.00 68 1014.9
20260904150329 28 247 1.6 6.4 0.00 0.00 0.00 68 1014.9
20260904150228 28 247 0.0 6.4 0.00 0.00 0.00 69 1014.9
20260904150200 28 247 0.0 6.4 0.00 0.00 0.00 69 1014.9
20260904150037 28 247 1.6 6.4 0.00 0.00 0.00 68 1014.9
20260904145938 28 246 3.2 6.4 0.00 0.00 0.00 68 1014.9
20260904145834 28 246 1.6 6.4 0.00 0.00 0.00 68 1014.9
20260904145753 27 247 3.2 6.4 0.00 0.00 0.00 68 1014.9
20260904145631 27 246 3.2 6.4 0.00 0.00 0.00 68 1014.9
20260904145527 27 247 0.0 4.8 0.00 0.00 0.00 69 1014.9
20260904145425 27 246 3.2 4.8 0.00 0.00 0.00 68 1014.9
20260904145343 27 247 3.2 4.8 0.00 0.00 0.00 68 1014.9